<?xml version="1.0" encoding="UTF-8" standalone="yes"?>
<gpx
 xmlns="http://www.topografix.com/GPX/1/1"
 creator="OziExplorer Version 3956f - http://www.oziexplorer.com"
 version="1.1"
 xmlns:xsi="http://www.w3.org/2001/XMLSchema-instance"
 xsi:schemaLocation="http://www.topografix.com/GPX/1/1 http://www.topografix.com/GPX/1/1/gpx.xsd">
<metadata>
 <time>2024-08-30T11:15:52Z</time>
 <bounds minlat="31.766890" minlon="34.954490" maxlat="31.798840" maxlon="34.998300"/>
</metadata>
<trk>
 <name>Zora_24km.,550m.V2</name>
 <desc>Zora_24km.,550m.V2</desc>
<trkseg>
<trkpt lat="31.7873400" lon="34.9903200">
<ele>326.720001</ele>
<time>2024-08-30T14:15:18.374Z</time>
</trkpt>
<trkpt lat="31.7873300" lon="34.9903600">
<ele>326.549988</ele>
<time>2024-08-30T14:15:18.374Z</time>
</trkpt>
<trkpt lat="31.7873100" lon="34.9904100">
<ele>326.329987</ele>
<time>2024-08-30T14:15:18.374Z</time>
</trkpt>
<trkpt lat="31.7872500" lon="34.9906100">
<ele>325.570007</ele>
<time>2024-08-30T14:15:18.374Z</time>
</trkpt>
<trkpt lat="31.7872100" lon="34.9908400">
<ele>324.059998</ele>
<time>2024-08-30T14:15:18.374Z</time>
</trkpt>
<trkpt lat="31.7872100" lon="34.9909600">
<ele>323.630005</ele>
<time>2024-08-30T14:15:18.374Z</time>
</trkpt>
<trkpt lat="31.7872100" lon="34.9911700">
<ele>323.089996</ele>
<time>2024-08-30T14:15:18.374Z</time>
</trkpt>
<trkpt lat="31.7872000" lon="34.9914800">
<ele>323.789978</ele>
<time>2024-08-30T14:15:18.374Z</time>
</trkpt>
<trkpt lat="31.7872000" lon="34.9917000">
<ele>325.320007</ele>
<time>2024-08-30T14:15:18.374Z</time>
</trkpt>
<trkpt lat="31.7872000" lon="34.9918100">
<ele>326.109985</ele>
<time>2024-08-30T14:15:18.374Z</time>
</trkpt>
<trkpt lat="31.7872000" lon="34.9919400">
<ele>327.049988</ele>
<time>2024-08-30T14:15:18.374Z</time>
</trkpt>
<trkpt lat="31.7871800" lon="34.9922700">
<ele>325.910004</ele>
<time>2024-08-30T14:15:18.374Z</time>
</trkpt>
<trkpt lat="31.7871300" lon="34.9923600">
<ele>325.339996</ele>
<time>2024-08-30T14:15:18.374Z</time>
</trkpt>
<trkpt lat="31.7870900" lon="34.9924400">
<ele>324.640015</ele>
<time>2024-08-30T14:15:18.374Z</time>
</trkpt>
<trkpt lat="31.7869600" lon="34.9926000">
<ele>323.619995</ele>
<time>2024-08-30T14:15:18.374Z</time>
</trkpt>
<trkpt lat="31.7867800" lon="34.9927700">
<ele>323.600006</ele>
<time>2024-08-30T14:15:18.374Z</time>
</trkpt>
<trkpt lat="31.7864800" lon="34.9929500">
<ele>326.489990</ele>
<time>2024-08-30T14:15:18.374Z</time>
</trkpt>
<trkpt lat="31.7864300" lon="34.9929900">
<ele>327.479980</ele>
<time>2024-08-30T14:15:18.374Z</time>
</trkpt>
<trkpt lat="31.7863800" lon="34.9930700">
<ele>329.239990</ele>
<time>2024-08-30T14:15:18.374Z</time>
</trkpt>
<trkpt lat="31.7863200" lon="34.9938200">
<ele>338.009979</ele>
<time>2024-08-30T14:15:18.374Z</time>
</trkpt>
<trkpt lat="31.7862800" lon="34.9939900">
<ele>338.890015</ele>
<time>2024-08-30T14:15:18.374Z</time>
</trkpt>
<trkpt lat="31.7861700" lon="34.9943900">
<ele>339.280029</ele>
<time>2024-08-30T14:15:18.374Z</time>
</trkpt>
<trkpt lat="31.7859900" lon="34.9947800">
<ele>337.369995</ele>
<time>2024-08-30T14:15:18.374Z</time>
</trkpt>
<trkpt lat="31.7858800" lon="34.9949600">
<ele>335.500000</ele>
<time>2024-08-30T14:15:18.374Z</time>
</trkpt>
<trkpt lat="31.7856100" lon="34.9953300">
<ele>330.820007</ele>
<time>2024-08-30T14:15:18.374Z</time>
</trkpt>
<trkpt lat="31.7855500" lon="34.9954200">
<ele>330.420013</ele>
<time>2024-08-30T14:15:18.374Z</time>
</trkpt>
<trkpt lat="31.7855000" lon="34.9956200">
<ele>330.290009</ele>
<time>2024-08-30T14:15:18.374Z</time>
</trkpt>
<trkpt lat="31.7854800" lon="34.9958600">
<ele>330.320007</ele>
<time>2024-08-30T14:15:18.374Z</time>
</trkpt>
<trkpt lat="31.7854800" lon="34.9959800">
<ele>329.690002</ele>
<time>2024-08-30T14:15:18.374Z</time>
</trkpt>
<trkpt lat="31.7855000" lon="34.9961300">
<ele>329.029999</ele>
<time>2024-08-30T14:15:18.374Z</time>
</trkpt>
<trkpt lat="31.7855200" lon="34.9961900">
<ele>329.070007</ele>
<time>2024-08-30T14:15:18.374Z</time>
</trkpt>
<trkpt lat="31.7855400" lon="34.9962200">
<ele>329.040009</ele>
<time>2024-08-30T14:15:18.374Z</time>
</trkpt>
<trkpt lat="31.7856600" lon="34.9962600">
<ele>327.869995</ele>
<time>2024-08-30T14:15:18.374Z</time>
</trkpt>
<trkpt lat="31.7860800" lon="34.9962700">
<ele>318.390015</ele>
<time>2024-08-30T14:15:18.374Z</time>
</trkpt>
<trkpt lat="31.7864900" lon="34.9962700">
<ele>315.909973</ele>
<time>2024-08-30T14:15:18.374Z</time>
</trkpt>
<trkpt lat="31.7867900" lon="34.9962000">
<ele>315.300018</ele>
<time>2024-08-30T14:15:18.374Z</time>
</trkpt>
<trkpt lat="31.7868500" lon="34.9962000">
<ele>315.449982</ele>
<time>2024-08-30T14:15:18.374Z</time>
</trkpt>
<trkpt lat="31.7869000" lon="34.9962200">
<ele>315.510010</ele>
<time>2024-08-30T14:15:18.374Z</time>
</trkpt>
<trkpt lat="31.7870000" lon="34.9962500">
<ele>315.300018</ele>
<time>2024-08-30T14:15:18.374Z</time>
</trkpt>
<trkpt lat="31.7869900" lon="34.9963600">
<ele>315.070007</ele>
<time>2024-08-30T14:15:18.374Z</time>
</trkpt>
<trkpt lat="31.7870100" lon="34.9966200">
<ele>310.839996</ele>
<time>2024-08-30T14:15:18.374Z</time>
</trkpt>
<trkpt lat="31.7870400" lon="34.9970000">
<ele>308.790009</ele>
<time>2024-08-30T14:15:18.374Z</time>
</trkpt>
<trkpt lat="31.7870400" lon="34.9973900">
<ele>308.950012</ele>
<time>2024-08-30T14:15:18.374Z</time>
</trkpt>
<trkpt lat="31.7868400" lon="34.9980900">
<ele>302.309998</ele>
<time>2024-08-30T14:15:18.374Z</time>
</trkpt>
<trkpt lat="31.7868100" lon="34.9981100">
<ele>301.679993</ele>
<time>2024-08-30T14:15:18.374Z</time>
</trkpt>
<trkpt lat="31.7866600" lon="34.9982100">
<ele>297.750000</ele>
<time>2024-08-30T14:15:18.374Z</time>
</trkpt>
<trkpt lat="31.7865900" lon="34.9982600">
<ele>296.910004</ele>
<time>2024-08-30T14:15:18.374Z</time>
</trkpt>
<trkpt lat="31.7865100" lon="34.9983000">
<ele>296.339996</ele>
<time>2024-08-30T14:15:18.374Z</time>
</trkpt>
<trkpt lat="31.7863900" lon="34.9983000">
<ele>296.239990</ele>
<time>2024-08-30T14:15:18.374Z</time>
</trkpt>
<trkpt lat="31.7861500" lon="34.9983000">
<ele>298.920013</ele>
<time>2024-08-30T14:15:18.374Z</time>
</trkpt>
<trkpt lat="31.7861000" lon="34.9982800">
<ele>299.649994</ele>
<time>2024-08-30T14:15:18.374Z</time>
</trkpt>
<trkpt lat="31.7859800" lon="34.9980900">
<ele>303.750000</ele>
<time>2024-08-30T14:15:18.374Z</time>
</trkpt>
<trkpt lat="31.7856200" lon="34.9973500">
<ele>323.470001</ele>
<time>2024-08-30T14:15:18.374Z</time>
</trkpt>
<trkpt lat="31.7853100" lon="34.9969300">
<ele>328.979980</ele>
<time>2024-08-30T14:15:18.374Z</time>
</trkpt>
<trkpt lat="31.7851400" lon="34.9965900">
<ele>330.370026</ele>
<time>2024-08-30T14:15:18.374Z</time>
</trkpt>
<trkpt lat="31.7851100" lon="34.9965500">
<ele>330.139984</ele>
<time>2024-08-30T14:15:18.374Z</time>
</trkpt>
<trkpt lat="31.7848200" lon="34.9958900">
<ele>326.090027</ele>
<time>2024-08-30T14:15:18.374Z</time>
</trkpt>
<trkpt lat="31.7847200" lon="34.9955800">
<ele>327.790009</ele>
<time>2024-08-30T14:15:18.374Z</time>
</trkpt>
<trkpt lat="31.7846000" lon="34.9953400">
<ele>332.790009</ele>
<time>2024-08-30T14:15:18.374Z</time>
</trkpt>
<trkpt lat="31.7844500" lon="34.9951100">
<ele>336.100006</ele>
<time>2024-08-30T14:15:18.374Z</time>
</trkpt>
<trkpt lat="31.7840400" lon="34.9945300">
<ele>336.600006</ele>
<time>2024-08-30T14:15:18.374Z</time>
</trkpt>
<trkpt lat="31.7838500" lon="34.9943300">
<ele>334.429993</ele>
<time>2024-08-30T14:15:18.374Z</time>
</trkpt>
<trkpt lat="31.7837700" lon="34.9942400">
<ele>334.589996</ele>
<time>2024-08-30T14:15:18.374Z</time>
</trkpt>
<trkpt lat="31.7834600" lon="34.9939300">
<ele>343.990021</ele>
<time>2024-08-30T14:15:18.374Z</time>
</trkpt>
<trkpt lat="31.7832600" lon="34.9937700">
<ele>345.449982</ele>
<time>2024-08-30T14:15:18.374Z</time>
</trkpt>
<trkpt lat="31.7826800" lon="34.9934400">
<ele>345.429993</ele>
<time>2024-08-30T14:15:18.374Z</time>
</trkpt>
<trkpt lat="31.7825200" lon="34.9933100">
<ele>344.930023</ele>
<time>2024-08-30T14:15:18.374Z</time>
</trkpt>
<trkpt lat="31.7824800" lon="34.9932600">
<ele>344.750000</ele>
<time>2024-08-30T14:15:18.374Z</time>
</trkpt>
<trkpt lat="31.7821600" lon="34.9929400">
<ele>339.369995</ele>
<time>2024-08-30T14:15:18.374Z</time>
</trkpt>
<trkpt lat="31.7819700" lon="34.9927800">
<ele>334.470001</ele>
<time>2024-08-30T14:15:18.374Z</time>
</trkpt>
<trkpt lat="31.7818100" lon="34.9927800">
<ele>330.619995</ele>
<time>2024-08-30T14:15:18.374Z</time>
</trkpt>
<trkpt lat="31.7816300" lon="34.9927800">
<ele>326.480011</ele>
<time>2024-08-30T14:15:18.374Z</time>
</trkpt>
<trkpt lat="31.7815000" lon="34.9927900">
<ele>324.640015</ele>
<time>2024-08-30T14:15:18.374Z</time>
</trkpt>
<trkpt lat="31.7813000" lon="34.9928400">
<ele>321.909973</ele>
<time>2024-08-30T14:15:18.374Z</time>
</trkpt>
<trkpt lat="31.7808900" lon="34.9930100">
<ele>317.459991</ele>
<time>2024-08-30T14:15:18.374Z</time>
</trkpt>
<trkpt lat="31.7807800" lon="34.9930500">
<ele>318.919983</ele>
<time>2024-08-30T14:15:18.374Z</time>
</trkpt>
<trkpt lat="31.7806700" lon="34.9931100">
<ele>320.510010</ele>
<time>2024-08-30T14:15:18.374Z</time>
</trkpt>
<trkpt lat="31.7803500" lon="34.9932900">
<ele>318.359985</ele>
<time>2024-08-30T14:15:18.374Z</time>
</trkpt>
<trkpt lat="31.7801400" lon="34.9933700">
<ele>315.709991</ele>
<time>2024-08-30T14:15:18.374Z</time>
</trkpt>
<trkpt lat="31.7799400" lon="34.9934400">
<ele>316.000000</ele>
<time>2024-08-30T14:15:18.374Z</time>
</trkpt>
<trkpt lat="31.7794200" lon="34.9935300">
<ele>316.519989</ele>
<time>2024-08-30T14:15:18.374Z</time>
</trkpt>
<trkpt lat="31.7793400" lon="34.9935800">
<ele>315.890015</ele>
<time>2024-08-30T14:15:18.374Z</time>
</trkpt>
<trkpt lat="31.7792100" lon="34.9936600">
<ele>314.600006</ele>
<time>2024-08-30T14:15:18.374Z</time>
</trkpt>
<trkpt lat="31.7789500" lon="34.9939100">
<ele>315.520020</ele>
<time>2024-08-30T14:15:18.374Z</time>
</trkpt>
<trkpt lat="31.7788200" lon="34.9939800">
<ele>316.190002</ele>
<time>2024-08-30T14:15:18.374Z</time>
</trkpt>
<trkpt lat="31.7786900" lon="34.9940100">
<ele>317.279968</ele>
<time>2024-08-30T14:15:18.374Z</time>
</trkpt>
<trkpt lat="31.7785900" lon="34.9940100">
<ele>318.260010</ele>
<time>2024-08-30T14:15:18.374Z</time>
</trkpt>
<trkpt lat="31.7785500" lon="34.9940100">
<ele>318.260010</ele>
<time>2024-08-30T14:15:18.374Z</time>
</trkpt>
<trkpt lat="31.7784700" lon="34.9939900">
<ele>318.540009</ele>
<time>2024-08-30T14:15:18.374Z</time>
</trkpt>
<trkpt lat="31.7779600" lon="34.9937500">
<ele>317.140015</ele>
<time>2024-08-30T14:15:18.374Z</time>
</trkpt>
<trkpt lat="31.7777500" lon="34.9936400">
<ele>315.399994</ele>
<time>2024-08-30T14:15:18.374Z</time>
</trkpt>
<trkpt lat="31.7776600" lon="34.9935700">
<ele>313.649994</ele>
<time>2024-08-30T14:15:18.374Z</time>
</trkpt>
<trkpt lat="31.7775400" lon="34.9934200">
<ele>310.929993</ele>
<time>2024-08-30T14:15:18.374Z</time>
</trkpt>
<trkpt lat="31.7774500" lon="34.9933000">
<ele>309.959991</ele>
<time>2024-08-30T14:15:18.374Z</time>
</trkpt>
<trkpt lat="31.7774100" lon="34.9931900">
<ele>309.669983</ele>
<time>2024-08-30T14:15:18.374Z</time>
</trkpt>
<trkpt lat="31.7774100" lon="34.9928800">
<ele>309.369995</ele>
<time>2024-08-30T14:15:18.374Z</time>
</trkpt>
<trkpt lat="31.7773900" lon="34.9924800">
<ele>307.089996</ele>
<time>2024-08-30T14:15:18.374Z</time>
</trkpt>
<trkpt lat="31.7773700" lon="34.9924300">
<ele>307.589996</ele>
<time>2024-08-30T14:15:18.374Z</time>
</trkpt>
<trkpt lat="31.7773600" lon="34.9923800">
<ele>308.220001</ele>
<time>2024-08-30T14:15:18.374Z</time>
</trkpt>
<trkpt lat="31.7773200" lon="34.9923100">
<ele>308.989990</ele>
<time>2024-08-30T14:15:18.374Z</time>
</trkpt>
<trkpt lat="31.7772400" lon="34.9922500">
<ele>309.580017</ele>
<time>2024-08-30T14:15:18.374Z</time>
</trkpt>
<trkpt lat="31.7771300" lon="34.9921400">
<ele>313.699982</ele>
<time>2024-08-30T14:15:18.374Z</time>
</trkpt>
<trkpt lat="31.7769900" lon="34.9920100">
<ele>318.300018</ele>
<time>2024-08-30T14:15:18.374Z</time>
</trkpt>
<trkpt lat="31.7768100" lon="34.9917900">
<ele>322.350006</ele>
<time>2024-08-30T14:15:18.374Z</time>
</trkpt>
<trkpt lat="31.7767600" lon="34.9917500">
<ele>323.189972</ele>
<time>2024-08-30T14:15:18.374Z</time>
</trkpt>
<trkpt lat="31.7761700" lon="34.9914400">
<ele>322.379974</ele>
<time>2024-08-30T14:15:18.374Z</time>
</trkpt>
<trkpt lat="31.7759600" lon="34.9914000">
<ele>319.259979</ele>
<time>2024-08-30T14:15:18.374Z</time>
</trkpt>
<trkpt lat="31.7757600" lon="34.9913000">
<ele>318.990021</ele>
<time>2024-08-30T14:15:18.374Z</time>
</trkpt>
<trkpt lat="31.7756100" lon="34.9912000">
<ele>318.649994</ele>
<time>2024-08-30T14:15:18.374Z</time>
</trkpt>
<trkpt lat="31.7755000" lon="34.9910400">
<ele>318.630005</ele>
<time>2024-08-30T14:15:18.374Z</time>
</trkpt>
<trkpt lat="31.7754600" lon="34.9907500">
<ele>321.200012</ele>
<time>2024-08-30T14:15:18.374Z</time>
</trkpt>
<trkpt lat="31.7754000" lon="34.9902800">
<ele>321.940002</ele>
<time>2024-08-30T14:15:18.374Z</time>
</trkpt>
<trkpt lat="31.7753500" lon="34.9896400">
<ele>329.739990</ele>
<time>2024-08-30T14:15:18.374Z</time>
</trkpt>
<trkpt lat="31.7752200" lon="34.9891800">
<ele>331.970001</ele>
<time>2024-08-30T14:15:18.374Z</time>
</trkpt>
<trkpt lat="31.7751200" lon="34.9889800">
<ele>329.850006</ele>
<time>2024-08-30T14:15:18.374Z</time>
</trkpt>
<trkpt lat="31.7749600" lon="34.9886900">
<ele>326.610016</ele>
<time>2024-08-30T14:15:18.374Z</time>
</trkpt>
<trkpt lat="31.7749100" lon="34.9885800">
<ele>326.390015</ele>
<time>2024-08-30T14:15:18.374Z</time>
</trkpt>
<trkpt lat="31.7748400" lon="34.9880700">
<ele>331.339996</ele>
<time>2024-08-30T14:15:18.374Z</time>
</trkpt>
<trkpt lat="31.7748300" lon="34.9878600">
<ele>334.140015</ele>
<time>2024-08-30T14:15:18.374Z</time>
</trkpt>
<trkpt lat="31.7748400" lon="34.9877200">
<ele>336.940002</ele>
<time>2024-08-30T14:15:18.374Z</time>
</trkpt>
<trkpt lat="31.7748700" lon="34.9876200">
<ele>339.830017</ele>
<time>2024-08-30T14:15:18.374Z</time>
</trkpt>
<trkpt lat="31.7749300" lon="34.9875600">
<ele>342.000000</ele>
<time>2024-08-30T14:15:18.374Z</time>
</trkpt>
<trkpt lat="31.7750200" lon="34.9875300">
<ele>343.200012</ele>
<time>2024-08-30T14:15:18.374Z</time>
</trkpt>
<trkpt lat="31.7752600" lon="34.9873800">
<ele>342.010010</ele>
<time>2024-08-30T14:15:18.374Z</time>
</trkpt>
<trkpt lat="31.7753000" lon="34.9873700">
<ele>341.440002</ele>
<time>2024-08-30T14:15:18.374Z</time>
</trkpt>
<trkpt lat="31.7753200" lon="34.9873600">
<ele>341.179993</ele>
<time>2024-08-30T14:15:18.374Z</time>
</trkpt>
<trkpt lat="31.7753600" lon="34.9873400">
<ele>340.559998</ele>
<time>2024-08-30T14:15:18.374Z</time>
</trkpt>
<trkpt lat="31.7753700" lon="34.9873000">
<ele>340.690002</ele>
<time>2024-08-30T14:15:18.374Z</time>
</trkpt>
<trkpt lat="31.7753600" lon="34.9872500">
<ele>341.380005</ele>
<time>2024-08-30T14:15:18.374Z</time>
</trkpt>
<trkpt lat="31.7753300" lon="34.9872300">
<ele>342.409973</ele>
<time>2024-08-30T14:15:18.374Z</time>
</trkpt>
<trkpt lat="31.7752900" lon="34.9872300">
<ele>343.540009</ele>
<time>2024-08-30T14:15:18.374Z</time>
</trkpt>
<trkpt lat="31.7752700" lon="34.9872400">
<ele>343.880005</ele>
<time>2024-08-30T14:15:18.374Z</time>
</trkpt>
<trkpt lat="31.7746700" lon="34.9866900">
<ele>358.410004</ele>
<time>2024-08-30T14:15:18.374Z</time>
</trkpt>
<trkpt lat="31.7743000" lon="34.9863600">
<ele>373.820007</ele>
<time>2024-08-30T14:15:18.374Z</time>
</trkpt>
<trkpt lat="31.7739400" lon="34.9860000">
<ele>371.940002</ele>
<time>2024-08-30T14:15:18.374Z</time>
</trkpt>
<trkpt lat="31.7738600" lon="34.9859200">
<ele>370.619995</ele>
<time>2024-08-30T14:15:18.374Z</time>
</trkpt>
<trkpt lat="31.7737600" lon="34.9858000">
<ele>368.940002</ele>
<time>2024-08-30T14:15:18.374Z</time>
</trkpt>
<trkpt lat="31.7736300" lon="34.9856000">
<ele>366.369995</ele>
<time>2024-08-30T14:15:18.374Z</time>
</trkpt>
<trkpt lat="31.7734000" lon="34.9851500">
<ele>362.250000</ele>
<time>2024-08-30T14:15:18.374Z</time>
</trkpt>
<trkpt lat="31.7733400" lon="34.9850100">
<ele>362.050018</ele>
<time>2024-08-30T14:15:18.374Z</time>
</trkpt>
<trkpt lat="31.7733100" lon="34.9848600">
<ele>362.040009</ele>
<time>2024-08-30T14:15:18.374Z</time>
</trkpt>
<trkpt lat="31.7733000" lon="34.9846300">
<ele>361.559998</ele>
<time>2024-08-30T14:15:18.374Z</time>
</trkpt>
<trkpt lat="31.7732900" lon="34.9842700">
<ele>358.279999</ele>
<time>2024-08-30T14:15:18.374Z</time>
</trkpt>
<trkpt lat="31.7732700" lon="34.9839800">
<ele>356.639984</ele>
<time>2024-08-30T14:15:18.374Z</time>
</trkpt>
<trkpt lat="31.7732700" lon="34.9839100">
<ele>356.390015</ele>
<time>2024-08-30T14:15:18.374Z</time>
</trkpt>
<trkpt lat="31.7730700" lon="34.9834800">
<ele>360.170013</ele>
<time>2024-08-30T14:15:18.374Z</time>
</trkpt>
<trkpt lat="31.7727600" lon="34.9828900">
<ele>362.529968</ele>
<time>2024-08-30T14:15:18.374Z</time>
</trkpt>
<trkpt lat="31.7724600" lon="34.9823200">
<ele>356.089996</ele>
<time>2024-08-30T14:15:18.374Z</time>
</trkpt>
<trkpt lat="31.7721300" lon="34.9819300">
<ele>345.830017</ele>
<time>2024-08-30T14:15:18.374Z</time>
</trkpt>
<trkpt lat="31.7720800" lon="34.9818400">
<ele>345.679993</ele>
<time>2024-08-30T14:15:18.374Z</time>
</trkpt>
<trkpt lat="31.7720400" lon="34.9813600">
<ele>353.100006</ele>
<time>2024-08-30T14:15:18.374Z</time>
</trkpt>
<trkpt lat="31.7720000" lon="34.9811300">
<ele>354.000000</ele>
<time>2024-08-30T14:15:18.374Z</time>
</trkpt>
<trkpt lat="31.7719300" lon="34.9810000">
<ele>350.429993</ele>
<time>2024-08-30T14:15:18.374Z</time>
</trkpt>
<trkpt lat="31.7718400" lon="34.9809400">
<ele>345.449982</ele>
<time>2024-08-30T14:15:18.374Z</time>
</trkpt>
<trkpt lat="31.7715800" lon="34.9808500">
<ele>333.529999</ele>
<time>2024-08-30T14:15:18.374Z</time>
</trkpt>
<trkpt lat="31.7715400" lon="34.9808000">
<ele>331.769989</ele>
<time>2024-08-30T14:15:18.374Z</time>
</trkpt>
<trkpt lat="31.7715200" lon="34.9807400">
<ele>330.479980</ele>
<time>2024-08-30T14:15:18.374Z</time>
</trkpt>
<trkpt lat="31.7715200" lon="34.9805200">
<ele>328.830017</ele>
<time>2024-08-30T14:15:18.374Z</time>
</trkpt>
<trkpt lat="31.7715200" lon="34.9804000">
<ele>327.989990</ele>
<time>2024-08-30T14:15:18.374Z</time>
</trkpt>
<trkpt lat="31.7715400" lon="34.9803300">
<ele>328.459991</ele>
<time>2024-08-30T14:15:18.374Z</time>
</trkpt>
<trkpt lat="31.7716100" lon="34.9802400">
<ele>331.380005</ele>
<time>2024-08-30T14:15:18.374Z</time>
</trkpt>
<trkpt lat="31.7718400" lon="34.9800900">
<ele>338.129974</ele>
<time>2024-08-30T14:15:18.374Z</time>
</trkpt>
<trkpt lat="31.7718500" lon="34.9800600">
<ele>338.009979</ele>
<time>2024-08-30T14:15:18.374Z</time>
</trkpt>
<trkpt lat="31.7718600" lon="34.9799800">
<ele>337.390015</ele>
<time>2024-08-30T14:15:18.374Z</time>
</trkpt>
<trkpt lat="31.7718600" lon="34.9799000">
<ele>337.010010</ele>
<time>2024-08-30T14:15:18.374Z</time>
</trkpt>
<trkpt lat="31.7718100" lon="34.9798100">
<ele>335.559998</ele>
<time>2024-08-30T14:15:18.374Z</time>
</trkpt>
<trkpt lat="31.7714100" lon="34.9796700">
<ele>328.470001</ele>
<time>2024-08-30T14:15:18.374Z</time>
</trkpt>
<trkpt lat="31.7713500" lon="34.9796500">
<ele>328.100006</ele>
<time>2024-08-30T14:15:18.374Z</time>
</trkpt>
<trkpt lat="31.7712900" lon="34.9796400">
<ele>327.599976</ele>
<time>2024-08-30T14:15:18.374Z</time>
</trkpt>
<trkpt lat="31.7711500" lon="34.9795800">
<ele>327.049988</ele>
<time>2024-08-30T14:15:18.374Z</time>
</trkpt>
<trkpt lat="31.7710800" lon="34.9795100">
<ele>327.290009</ele>
<time>2024-08-30T14:15:18.374Z</time>
</trkpt>
<trkpt lat="31.7708800" lon="34.9790200">
<ele>328.769989</ele>
<time>2024-08-30T14:15:18.374Z</time>
</trkpt>
<trkpt lat="31.7706500" lon="34.9786800">
<ele>327.599976</ele>
<time>2024-08-30T14:15:18.374Z</time>
</trkpt>
<trkpt lat="31.7705900" lon="34.9785700">
<ele>328.220001</ele>
<time>2024-08-30T14:15:18.374Z</time>
</trkpt>
<trkpt lat="31.7705300" lon="34.9784900">
<ele>329.720001</ele>
<time>2024-08-30T14:15:18.374Z</time>
</trkpt>
<trkpt lat="31.7703900" lon="34.9783000">
<ele>335.770020</ele>
<time>2024-08-30T14:15:18.374Z</time>
</trkpt>
<trkpt lat="31.7702200" lon="34.9781200">
<ele>337.820007</ele>
<time>2024-08-30T14:15:18.374Z</time>
</trkpt>
<trkpt lat="31.7700800" lon="34.9779500">
<ele>340.399994</ele>
<time>2024-08-30T14:15:18.374Z</time>
</trkpt>
<trkpt lat="31.7698000" lon="34.9777800">
<ele>334.419983</ele>
<time>2024-08-30T14:15:18.374Z</time>
</trkpt>
<trkpt lat="31.7696600" lon="34.9776000">
<ele>328.799988</ele>
<time>2024-08-30T14:15:18.374Z</time>
</trkpt>
<trkpt lat="31.7695400" lon="34.9774200">
<ele>325.429993</ele>
<time>2024-08-30T14:15:18.374Z</time>
</trkpt>
<trkpt lat="31.7694300" lon="34.9771700">
<ele>322.429993</ele>
<time>2024-08-30T14:15:18.374Z</time>
</trkpt>
<trkpt lat="31.7693800" lon="34.9770500">
<ele>319.959991</ele>
<time>2024-08-30T14:15:18.374Z</time>
</trkpt>
<trkpt lat="31.7693700" lon="34.9768000">
<ele>314.509979</ele>
<time>2024-08-30T14:15:18.374Z</time>
</trkpt>
<trkpt lat="31.7693700" lon="34.9767400">
<ele>312.659973</ele>
<time>2024-08-30T14:15:18.374Z</time>
</trkpt>
<trkpt lat="31.7693700" lon="34.9766800">
<ele>310.800018</ele>
<time>2024-08-30T14:15:18.374Z</time>
</trkpt>
<trkpt lat="31.7694200" lon="34.9765800">
<ele>311.779999</ele>
<time>2024-08-30T14:15:18.374Z</time>
</trkpt>
<trkpt lat="31.7695900" lon="34.9763700">
<ele>317.539978</ele>
<time>2024-08-30T14:15:18.374Z</time>
</trkpt>
<trkpt lat="31.7696800" lon="34.9762000">
<ele>324.129974</ele>
<time>2024-08-30T14:15:18.374Z</time>
</trkpt>
<trkpt lat="31.7696900" lon="34.9761300">
<ele>326.160004</ele>
<time>2024-08-30T14:15:18.374Z</time>
</trkpt>
<trkpt lat="31.7697000" lon="34.9760500">
<ele>328.130005</ele>
<time>2024-08-30T14:15:18.374Z</time>
</trkpt>
<trkpt lat="31.7696900" lon="34.9759700">
<ele>329.350006</ele>
<time>2024-08-30T14:15:18.374Z</time>
</trkpt>
<trkpt lat="31.7696400" lon="34.9759500">
<ele>328.830017</ele>
<time>2024-08-30T14:15:18.374Z</time>
</trkpt>
<trkpt lat="31.7695200" lon="34.9759300">
<ele>327.570007</ele>
<time>2024-08-30T14:15:18.374Z</time>
</trkpt>
<trkpt lat="31.7693000" lon="34.9759400">
<ele>325.289978</ele>
<time>2024-08-30T14:15:18.374Z</time>
</trkpt>
<trkpt lat="31.7691600" lon="34.9759300">
<ele>325.130005</ele>
<time>2024-08-30T14:15:18.374Z</time>
</trkpt>
<trkpt lat="31.7690600" lon="34.9759100">
<ele>325.299988</ele>
<time>2024-08-30T14:15:18.374Z</time>
</trkpt>
<trkpt lat="31.7688200" lon="34.9758100">
<ele>326.720001</ele>
<time>2024-08-30T14:15:18.374Z</time>
</trkpt>
<trkpt lat="31.7687200" lon="34.9757400">
<ele>327.259979</ele>
<time>2024-08-30T14:15:18.374Z</time>
</trkpt>
<trkpt lat="31.7684500" lon="34.9755100">
<ele>331.619995</ele>
<time>2024-08-30T14:15:18.374Z</time>
</trkpt>
<trkpt lat="31.7674800" lon="34.9746400">
<ele>316.369995</ele>
<time>2024-08-30T14:15:18.374Z</time>
</trkpt>
<trkpt lat="31.7674300" lon="34.9745800">
<ele>315.000000</ele>
<time>2024-08-30T14:15:18.374Z</time>
</trkpt>
<trkpt lat="31.7672900" lon="34.9743400">
<ele>313.120026</ele>
<time>2024-08-30T14:15:18.374Z</time>
</trkpt>
<trkpt lat="31.7670700" lon="34.9738200">
<ele>310.959991</ele>
<time>2024-08-30T14:15:18.374Z</time>
</trkpt>
<trkpt lat="31.7670400" lon="34.9737600">
<ele>310.820007</ele>
<time>2024-08-30T14:15:18.374Z</time>
</trkpt>
<trkpt lat="31.7669500" lon="34.9733500">
<ele>309.309998</ele>
<time>2024-08-30T14:15:18.374Z</time>
</trkpt>
<trkpt lat="31.7669000" lon="34.9730100">
<ele>309.399994</ele>
<time>2024-08-30T14:15:18.374Z</time>
</trkpt>
<trkpt lat="31.7668900" lon="34.9728200">
<ele>308.389984</ele>
<time>2024-08-30T14:15:18.374Z</time>
</trkpt>
<trkpt lat="31.7668900" lon="34.9727000">
<ele>307.399994</ele>
<time>2024-08-30T14:15:18.374Z</time>
</trkpt>
<trkpt lat="31.7669100" lon="34.9722900">
<ele>304.369995</ele>
<time>2024-08-30T14:15:18.374Z</time>
</trkpt>
<trkpt lat="31.7670000" lon="34.9720300">
<ele>304.970001</ele>
<time>2024-08-30T14:15:18.374Z</time>
</trkpt>
<trkpt lat="31.7670500" lon="34.9719600">
<ele>305.669983</ele>
<time>2024-08-30T14:15:18.374Z</time>
</trkpt>
<trkpt lat="31.7671000" lon="34.9719100">
<ele>306.250000</ele>
<time>2024-08-30T14:15:18.374Z</time>
</trkpt>
<trkpt lat="31.7671800" lon="34.9718100">
<ele>305.720001</ele>
<time>2024-08-30T14:15:18.374Z</time>
</trkpt>
<trkpt lat="31.7675700" lon="34.9714300">
<ele>306.239990</ele>
<time>2024-08-30T14:15:18.374Z</time>
</trkpt>
<trkpt lat="31.7676600" lon="34.9713500">
<ele>304.369995</ele>
<time>2024-08-30T14:15:18.374Z</time>
</trkpt>
<trkpt lat="31.7679400" lon="34.9711900">
<ele>300.380005</ele>
<time>2024-08-30T14:15:18.374Z</time>
</trkpt>
<trkpt lat="31.7681100" lon="34.9710400">
<ele>300.570007</ele>
<time>2024-08-30T14:15:18.374Z</time>
</trkpt>
<trkpt lat="31.7682800" lon="34.9708800">
<ele>302.929993</ele>
<time>2024-08-30T14:15:18.374Z</time>
</trkpt>
<trkpt lat="31.7683500" lon="34.9708100">
<ele>303.399994</ele>
<time>2024-08-30T14:15:18.374Z</time>
</trkpt>
<trkpt lat="31.7686400" lon="34.9703700">
<ele>305.519989</ele>
<time>2024-08-30T14:15:18.374Z</time>
</trkpt>
<trkpt lat="31.7690000" lon="34.9699100">
<ele>312.659973</ele>
<time>2024-08-30T14:15:18.374Z</time>
</trkpt>
<trkpt lat="31.7690400" lon="34.9698300">
<ele>314.209991</ele>
<time>2024-08-30T14:15:18.374Z</time>
</trkpt>
<trkpt lat="31.7690900" lon="34.9697000">
<ele>315.720001</ele>
<time>2024-08-30T14:15:18.374Z</time>
</trkpt>
<trkpt lat="31.7691100" lon="34.9695300">
<ele>315.550018</ele>
<time>2024-08-30T14:15:18.374Z</time>
</trkpt>
<trkpt lat="31.7691100" lon="34.9694400">
<ele>315.190002</ele>
<time>2024-08-30T14:15:18.374Z</time>
</trkpt>
<trkpt lat="31.7691100" lon="34.9688500">
<ele>316.720032</ele>
<time>2024-08-30T14:15:18.374Z</time>
</trkpt>
<trkpt lat="31.7691100" lon="34.9679100">
<ele>315.669983</ele>
<time>2024-08-30T14:15:18.374Z</time>
</trkpt>
<trkpt lat="31.7690800" lon="34.9674100">
<ele>311.680023</ele>
<time>2024-08-30T14:15:18.374Z</time>
</trkpt>
<trkpt lat="31.7690200" lon="34.9671600">
<ele>308.220001</ele>
<time>2024-08-30T14:15:18.374Z</time>
</trkpt>
<trkpt lat="31.7689800" lon="34.9670700">
<ele>305.839996</ele>
<time>2024-08-30T14:15:18.374Z</time>
</trkpt>
<trkpt lat="31.7688400" lon="34.9665900">
<ele>298.089996</ele>
<time>2024-08-30T14:15:18.374Z</time>
</trkpt>
<trkpt lat="31.7688200" lon="34.9665500">
<ele>296.820007</ele>
<time>2024-08-30T14:15:18.374Z</time>
</trkpt>
<trkpt lat="31.7688100" lon="34.9664400">
<ele>295.990021</ele>
<time>2024-08-30T14:15:18.374Z</time>
</trkpt>
<trkpt lat="31.7688000" lon="34.9660300">
<ele>297.100006</ele>
<time>2024-08-30T14:15:18.374Z</time>
</trkpt>
<trkpt lat="31.7687900" lon="34.9659500">
<ele>297.369995</ele>
<time>2024-08-30T14:15:18.374Z</time>
</trkpt>
<trkpt lat="31.7687400" lon="34.9657900">
<ele>297.089996</ele>
<time>2024-08-30T14:15:18.374Z</time>
</trkpt>
<trkpt lat="31.7684300" lon="34.9654200">
<ele>297.859985</ele>
<time>2024-08-30T14:15:18.374Z</time>
</trkpt>
<trkpt lat="31.7683500" lon="34.9653200">
<ele>298.269989</ele>
<time>2024-08-30T14:15:18.374Z</time>
</trkpt>
<trkpt lat="31.7681500" lon="34.9649200">
<ele>296.450012</ele>
<time>2024-08-30T14:15:18.374Z</time>
</trkpt>
<trkpt lat="31.7681300" lon="34.9648000">
<ele>295.230011</ele>
<time>2024-08-30T14:15:18.374Z</time>
</trkpt>
<trkpt lat="31.7681200" lon="34.9645800">
<ele>291.750000</ele>
<time>2024-08-30T14:15:18.374Z</time>
</trkpt>
<trkpt lat="31.7681200" lon="34.9645100">
<ele>290.380005</ele>
<time>2024-08-30T14:15:18.374Z</time>
</trkpt>
<trkpt lat="31.7681800" lon="34.9642700">
<ele>286.700012</ele>
<time>2024-08-30T14:15:18.374Z</time>
</trkpt>
<trkpt lat="31.7685900" lon="34.9635800">
<ele>294.809998</ele>
<time>2024-08-30T14:15:18.374Z</time>
</trkpt>
<trkpt lat="31.7686800" lon="34.9635000">
<ele>295.790009</ele>
<time>2024-08-30T14:15:18.374Z</time>
</trkpt>
<trkpt lat="31.7687800" lon="34.9634900">
<ele>297.640015</ele>
<time>2024-08-30T14:15:18.374Z</time>
</trkpt>
<trkpt lat="31.7690700" lon="34.9635000">
<ele>300.260010</ele>
<time>2024-08-30T14:15:18.374Z</time>
</trkpt>
<trkpt lat="31.7691700" lon="34.9635000">
<ele>300.369995</ele>
<time>2024-08-30T14:15:18.374Z</time>
</trkpt>
<trkpt lat="31.7693300" lon="34.9635200">
<ele>299.119995</ele>
<time>2024-08-30T14:15:18.374Z</time>
</trkpt>
<trkpt lat="31.7694400" lon="34.9635100">
<ele>297.950012</ele>
<time>2024-08-30T14:15:18.374Z</time>
</trkpt>
<trkpt lat="31.7694900" lon="34.9635100">
<ele>298.339996</ele>
<time>2024-08-30T14:15:18.374Z</time>
</trkpt>
<trkpt lat="31.7695900" lon="34.9635000">
<ele>299.160004</ele>
<time>2024-08-30T14:15:18.374Z</time>
</trkpt>
<trkpt lat="31.7697000" lon="34.9634500">
<ele>299.489990</ele>
<time>2024-08-30T14:15:18.374Z</time>
</trkpt>
<trkpt lat="31.7700500" lon="34.9630400">
<ele>301.859985</ele>
<time>2024-08-30T14:15:18.374Z</time>
</trkpt>
<trkpt lat="31.7701600" lon="34.9629000">
<ele>302.220001</ele>
<time>2024-08-30T14:15:18.374Z</time>
</trkpt>
<trkpt lat="31.7706800" lon="34.9620500">
<ele>312.130005</ele>
<time>2024-08-30T14:15:18.374Z</time>
</trkpt>
<trkpt lat="31.7708300" lon="34.9617100">
<ele>310.850006</ele>
<time>2024-08-30T14:15:18.374Z</time>
</trkpt>
<trkpt lat="31.7709100" lon="34.9615800">
<ele>309.700012</ele>
<time>2024-08-30T14:15:18.374Z</time>
</trkpt>
<trkpt lat="31.7709900" lon="34.9614900">
<ele>309.209991</ele>
<time>2024-08-30T14:15:18.374Z</time>
</trkpt>
<trkpt lat="31.7710700" lon="34.9614500">
<ele>309.769989</ele>
<time>2024-08-30T14:15:18.374Z</time>
</trkpt>
<trkpt lat="31.7713100" lon="34.9614200">
<ele>314.000000</ele>
<time>2024-08-30T14:15:18.374Z</time>
</trkpt>
<trkpt lat="31.7714200" lon="34.9614200">
<ele>316.019989</ele>
<time>2024-08-30T14:15:18.374Z</time>
</trkpt>
<trkpt lat="31.7714500" lon="34.9614200">
<ele>316.360016</ele>
<time>2024-08-30T14:15:18.374Z</time>
</trkpt>
<trkpt lat="31.7717200" lon="34.9614900">
<ele>320.409973</ele>
<time>2024-08-30T14:15:18.374Z</time>
</trkpt>
<trkpt lat="31.7717700" lon="34.9615300">
<ele>321.179993</ele>
<time>2024-08-30T14:15:18.374Z</time>
</trkpt>
<trkpt lat="31.7718100" lon="34.9615900">
<ele>322.320007</ele>
<time>2024-08-30T14:15:18.374Z</time>
</trkpt>
<trkpt lat="31.7718400" lon="34.9616600">
<ele>323.610016</ele>
<time>2024-08-30T14:15:18.374Z</time>
</trkpt>
<trkpt lat="31.7718800" lon="34.9617700">
<ele>324.750000</ele>
<time>2024-08-30T14:15:18.374Z</time>
</trkpt>
<trkpt lat="31.7718900" lon="34.9618100">
<ele>325.140015</ele>
<time>2024-08-30T14:15:18.374Z</time>
</trkpt>
<trkpt lat="31.7718900" lon="34.9618100">
<ele>325.140015</ele>
<time>2024-08-30T14:15:18.374Z</time>
</trkpt>
<trkpt lat="31.7718800" lon="34.9617900">
<ele>325.000000</ele>
<time>2024-08-30T14:15:18.374Z</time>
</trkpt>
<trkpt lat="31.7720700" lon="34.9625200">
<ele>329.860016</ele>
<time>2024-08-30T14:15:18.374Z</time>
</trkpt>
<trkpt lat="31.7720900" lon="34.9626400">
<ele>329.829987</ele>
<time>2024-08-30T14:15:18.374Z</time>
</trkpt>
<trkpt lat="31.7720400" lon="34.9627900">
<ele>328.730011</ele>
<time>2024-08-30T14:15:18.374Z</time>
</trkpt>
<trkpt lat="31.7719900" lon="34.9628500">
<ele>327.989990</ele>
<time>2024-08-30T14:15:18.374Z</time>
</trkpt>
<trkpt lat="31.7719500" lon="34.9629100">
<ele>327.559998</ele>
<time>2024-08-30T14:15:18.374Z</time>
</trkpt>
<trkpt lat="31.7707900" lon="34.9635100">
<ele>315.730011</ele>
<time>2024-08-30T14:15:18.374Z</time>
</trkpt>
<trkpt lat="31.7703300" lon="34.9637800">
<ele>309.309998</ele>
<time>2024-08-30T14:15:18.374Z</time>
</trkpt>
<trkpt lat="31.7703300" lon="34.9637800">
<ele>309.309998</ele>
<time>2024-08-30T14:15:18.374Z</time>
</trkpt>
<trkpt lat="31.7700000" lon="34.9639900">
<ele>308.000000</ele>
<time>2024-08-30T14:15:18.374Z</time>
</trkpt>
<trkpt lat="31.7699300" lon="34.9640500">
<ele>307.929993</ele>
<time>2024-08-30T14:15:18.374Z</time>
</trkpt>
<trkpt lat="31.7698900" lon="34.9641200">
<ele>308.200012</ele>
<time>2024-08-30T14:15:18.374Z</time>
</trkpt>
<trkpt lat="31.7698300" lon="34.9642300">
<ele>308.600006</ele>
<time>2024-08-30T14:15:18.374Z</time>
</trkpt>
<trkpt lat="31.7698200" lon="34.9643500">
<ele>308.490021</ele>
<time>2024-08-30T14:15:18.374Z</time>
</trkpt>
<trkpt lat="31.7698200" lon="34.9644300">
<ele>308.420013</ele>
<time>2024-08-30T14:15:18.374Z</time>
</trkpt>
<trkpt lat="31.7698400" lon="34.9645400">
<ele>308.750000</ele>
<time>2024-08-30T14:15:18.374Z</time>
</trkpt>
<trkpt lat="31.7698800" lon="34.9646000">
<ele>309.199982</ele>
<time>2024-08-30T14:15:18.374Z</time>
</trkpt>
<trkpt lat="31.7699200" lon="34.9646500">
<ele>309.529999</ele>
<time>2024-08-30T14:15:18.374Z</time>
</trkpt>
<trkpt lat="31.7699300" lon="34.9646600">
<ele>309.609985</ele>
<time>2024-08-30T14:15:18.374Z</time>
</trkpt>
<trkpt lat="31.7699300" lon="34.9646600">
<ele>309.609985</ele>
<time>2024-08-30T14:15:18.374Z</time>
</trkpt>
<trkpt lat="31.7699500" lon="34.9646800">
<ele>309.739990</ele>
<time>2024-08-30T14:15:18.374Z</time>
</trkpt>
<trkpt lat="31.7700000" lon="34.9647200">
<ele>310.010010</ele>
<time>2024-08-30T14:15:18.374Z</time>
</trkpt>
<trkpt lat="31.7703400" lon="34.9648900">
<ele>316.100006</ele>
<time>2024-08-30T14:15:18.374Z</time>
</trkpt>
<trkpt lat="31.7704900" lon="34.9649500">
<ele>317.970001</ele>
<time>2024-08-30T14:15:18.374Z</time>
</trkpt>
<trkpt lat="31.7708400" lon="34.9650800">
<ele>325.889984</ele>
<time>2024-08-30T14:15:18.374Z</time>
</trkpt>
<trkpt lat="31.7710800" lon="34.9652200">
<ele>329.179993</ele>
<time>2024-08-30T14:15:18.374Z</time>
</trkpt>
<trkpt lat="31.7712100" lon="34.9653900">
<ele>329.019989</ele>
<time>2024-08-30T14:15:18.374Z</time>
</trkpt>
<trkpt lat="31.7712300" lon="34.9654300">
<ele>328.639984</ele>
<time>2024-08-30T14:15:18.374Z</time>
</trkpt>
<trkpt lat="31.7712500" lon="34.9654700">
<ele>328.150024</ele>
<time>2024-08-30T14:15:18.374Z</time>
</trkpt>
<trkpt lat="31.7713000" lon="34.9656000">
<ele>326.500000</ele>
<time>2024-08-30T14:15:18.374Z</time>
</trkpt>
<trkpt lat="31.7713000" lon="34.9657300">
<ele>326.329987</ele>
<time>2024-08-30T14:15:18.374Z</time>
</trkpt>
<trkpt lat="31.7713000" lon="34.9661200">
<ele>327.590027</ele>
<time>2024-08-30T14:15:18.374Z</time>
</trkpt>
<trkpt lat="31.7713000" lon="34.9662400">
<ele>328.059998</ele>
<time>2024-08-30T14:15:18.374Z</time>
</trkpt>
<trkpt lat="31.7709400" lon="34.9674800">
<ele>326.970001</ele>
<time>2024-08-30T14:15:18.374Z</time>
</trkpt>
<trkpt lat="31.7706000" lon="34.9683800">
<ele>336.849976</ele>
<time>2024-08-30T14:15:18.374Z</time>
</trkpt>
<trkpt lat="31.7703300" lon="34.9694100">
<ele>345.830017</ele>
<time>2024-08-30T14:15:18.374Z</time>
</trkpt>
<trkpt lat="31.7703300" lon="34.9695300">
<ele>345.870026</ele>
<time>2024-08-30T14:15:18.374Z</time>
</trkpt>
<trkpt lat="31.7703300" lon="34.9701400">
<ele>345.109985</ele>
<time>2024-08-30T14:15:18.374Z</time>
</trkpt>
<trkpt lat="31.7703400" lon="34.9703600">
<ele>343.239990</ele>
<time>2024-08-30T14:15:18.374Z</time>
</trkpt>
<trkpt lat="31.7703600" lon="34.9705600">
<ele>341.790009</ele>
<time>2024-08-30T14:15:18.374Z</time>
</trkpt>
<trkpt lat="31.7704300" lon="34.9708500">
<ele>342.429993</ele>
<time>2024-08-30T14:15:18.374Z</time>
</trkpt>
<trkpt lat="31.7704700" lon="34.9710100">
<ele>344.830017</ele>
<time>2024-08-30T14:15:18.374Z</time>
</trkpt>
<trkpt lat="31.7705400" lon="34.9710500">
<ele>343.880005</ele>
<time>2024-08-30T14:15:18.374Z</time>
</trkpt>
<trkpt lat="31.7706000" lon="34.9710600">
<ele>343.680023</ele>
<time>2024-08-30T14:15:18.374Z</time>
</trkpt>
<trkpt lat="31.7706700" lon="34.9710600">
<ele>343.640015</ele>
<time>2024-08-30T14:15:18.374Z</time>
</trkpt>
<trkpt lat="31.7707200" lon="34.9710400">
<ele>343.059998</ele>
<time>2024-08-30T14:15:18.374Z</time>
</trkpt>
<trkpt lat="31.7711100" lon="34.9707100">
<ele>339.320007</ele>
<time>2024-08-30T14:15:18.374Z</time>
</trkpt>
<trkpt lat="31.7712200" lon="34.9706100">
<ele>341.100006</ele>
<time>2024-08-30T14:15:18.374Z</time>
</trkpt>
<trkpt lat="31.7714200" lon="34.9704800">
<ele>346.260010</ele>
<time>2024-08-30T14:15:18.374Z</time>
</trkpt>
<trkpt lat="31.7715300" lon="34.9704800">
<ele>349.429993</ele>
<time>2024-08-30T14:15:18.374Z</time>
</trkpt>
<trkpt lat="31.7715900" lon="34.9704800">
<ele>351.160004</ele>
<time>2024-08-30T14:15:18.374Z</time>
</trkpt>
<trkpt lat="31.7716600" lon="34.9704900">
<ele>353.390015</ele>
<time>2024-08-30T14:15:18.374Z</time>
</trkpt>
<trkpt lat="31.7717100" lon="34.9705500">
<ele>355.500000</ele>
<time>2024-08-30T14:15:18.374Z</time>
</trkpt>
<trkpt lat="31.7717900" lon="34.9706400">
<ele>357.860016</ele>
<time>2024-08-30T14:15:18.374Z</time>
</trkpt>
<trkpt lat="31.7719800" lon="34.9712800">
<ele>364.639984</ele>
<time>2024-08-30T14:15:18.374Z</time>
</trkpt>
<trkpt lat="31.7720600" lon="34.9714800">
<ele>361.370026</ele>
<time>2024-08-30T14:15:18.374Z</time>
</trkpt>
<trkpt lat="31.7721300" lon="34.9716200">
<ele>359.850006</ele>
<time>2024-08-30T14:15:18.374Z</time>
</trkpt>
<trkpt lat="31.7724400" lon="34.9719900">
<ele>353.850006</ele>
<time>2024-08-30T14:15:18.374Z</time>
</trkpt>
<trkpt lat="31.7725200" lon="34.9720900">
<ele>351.300018</ele>
<time>2024-08-30T14:15:18.374Z</time>
</trkpt>
<trkpt lat="31.7725700" lon="34.9722300">
<ele>348.250000</ele>
<time>2024-08-30T14:15:18.374Z</time>
</trkpt>
<trkpt lat="31.7725800" lon="34.9724400">
<ele>348.440002</ele>
<time>2024-08-30T14:15:18.374Z</time>
</trkpt>
<trkpt lat="31.7725800" lon="34.9726000">
<ele>349.739990</ele>
<time>2024-08-30T14:15:18.374Z</time>
</trkpt>
<trkpt lat="31.7725500" lon="34.9727600">
<ele>352.080017</ele>
<time>2024-08-30T14:15:18.374Z</time>
</trkpt>
<trkpt lat="31.7724400" lon="34.9729900">
<ele>353.280029</ele>
<time>2024-08-30T14:15:18.374Z</time>
</trkpt>
<trkpt lat="31.7723600" lon="34.9731000">
<ele>354.090027</ele>
<time>2024-08-30T14:15:18.374Z</time>
</trkpt>
<trkpt lat="31.7722100" lon="34.9732400">
<ele>355.859985</ele>
<time>2024-08-30T14:15:18.374Z</time>
</trkpt>
<trkpt lat="31.7717900" lon="34.9736300">
<ele>363.800018</ele>
<time>2024-08-30T14:15:18.374Z</time>
</trkpt>
<trkpt lat="31.7716800" lon="34.9737700">
<ele>366.000000</ele>
<time>2024-08-30T14:15:18.374Z</time>
</trkpt>
<trkpt lat="31.7716100" lon="34.9739200">
<ele>368.739990</ele>
<time>2024-08-30T14:15:18.374Z</time>
</trkpt>
<trkpt lat="31.7715700" lon="34.9740600">
<ele>372.859985</ele>
<time>2024-08-30T14:15:18.374Z</time>
</trkpt>
<trkpt lat="31.7715700" lon="34.9741900">
<ele>376.290009</ele>
<time>2024-08-30T14:15:18.374Z</time>
</trkpt>
<trkpt lat="31.7715600" lon="34.9745000">
<ele>385.540009</ele>
<time>2024-08-30T14:15:18.374Z</time>
</trkpt>
<trkpt lat="31.7715700" lon="34.9746100">
<ele>385.440002</ele>
<time>2024-08-30T14:15:18.374Z</time>
</trkpt>
<trkpt lat="31.7716000" lon="34.9747100">
<ele>385.529999</ele>
<time>2024-08-30T14:15:18.374Z</time>
</trkpt>
<trkpt lat="31.7717200" lon="34.9749500">
<ele>385.300018</ele>
<time>2024-08-30T14:15:18.374Z</time>
</trkpt>
<trkpt lat="31.7723000" lon="34.9756200">
<ele>372.070007</ele>
<time>2024-08-30T14:15:18.374Z</time>
</trkpt>
<trkpt lat="31.7727200" lon="34.9762300">
<ele>376.180023</ele>
<time>2024-08-30T14:15:18.374Z</time>
</trkpt>
<trkpt lat="31.7727600" lon="34.9762700">
<ele>376.239990</ele>
<time>2024-08-30T14:15:18.374Z</time>
</trkpt>
<trkpt lat="31.7729500" lon="34.9765900">
<ele>376.760010</ele>
<time>2024-08-30T14:15:18.374Z</time>
</trkpt>
<trkpt lat="31.7729800" lon="34.9767000">
<ele>376.980011</ele>
<time>2024-08-30T14:15:18.374Z</time>
</trkpt>
<trkpt lat="31.7730000" lon="34.9770100">
<ele>372.330017</ele>
<time>2024-08-30T14:15:18.374Z</time>
</trkpt>
<trkpt lat="31.7729900" lon="34.9772400">
<ele>364.880005</ele>
<time>2024-08-30T14:15:18.374Z</time>
</trkpt>
<trkpt lat="31.7730000" lon="34.9774700">
<ele>360.720001</ele>
<time>2024-08-30T14:15:18.374Z</time>
</trkpt>
<trkpt lat="31.7730000" lon="34.9777300">
<ele>360.699982</ele>
<time>2024-08-30T14:15:18.374Z</time>
</trkpt>
<trkpt lat="31.7730000" lon="34.9779000">
<ele>360.980011</ele>
<time>2024-08-30T14:15:18.374Z</time>
</trkpt>
<trkpt lat="31.7730600" lon="34.9784200">
<ele>363.290009</ele>
<time>2024-08-30T14:15:18.374Z</time>
</trkpt>
<trkpt lat="31.7731200" lon="34.9786200">
<ele>363.859985</ele>
<time>2024-08-30T14:15:18.374Z</time>
</trkpt>
<trkpt lat="31.7732100" lon="34.9787700">
<ele>362.089996</ele>
<time>2024-08-30T14:15:18.374Z</time>
</trkpt>
<trkpt lat="31.7733800" lon="34.9790800">
<ele>363.389984</ele>
<time>2024-08-30T14:15:18.374Z</time>
</trkpt>
<trkpt lat="31.7734100" lon="34.9791000">
<ele>363.599976</ele>
<time>2024-08-30T14:15:18.374Z</time>
</trkpt>
<trkpt lat="31.7735000" lon="34.9791100">
<ele>363.819977</ele>
<time>2024-08-30T14:15:18.374Z</time>
</trkpt>
<trkpt lat="31.7736000" lon="34.9791100">
<ele>363.959991</ele>
<time>2024-08-30T14:15:18.374Z</time>
</trkpt>
<trkpt lat="31.7737400" lon="34.9791000">
<ele>364.600006</ele>
<time>2024-08-30T14:15:18.374Z</time>
</trkpt>
<trkpt lat="31.7738800" lon="34.9790500">
<ele>365.090027</ele>
<time>2024-08-30T14:15:18.374Z</time>
</trkpt>
<trkpt lat="31.7739400" lon="34.9790000">
<ele>365.459991</ele>
<time>2024-08-30T14:15:18.374Z</time>
</trkpt>
<trkpt lat="31.7740200" lon="34.9789100">
<ele>365.239990</ele>
<time>2024-08-30T14:15:18.374Z</time>
</trkpt>
<trkpt lat="31.7740700" lon="34.9787500">
<ele>364.459991</ele>
<time>2024-08-30T14:15:18.374Z</time>
</trkpt>
<trkpt lat="31.7741900" lon="34.9784300">
<ele>363.100006</ele>
<time>2024-08-30T14:15:18.374Z</time>
</trkpt>
<trkpt lat="31.7744400" lon="34.9782400">
<ele>365.610016</ele>
<time>2024-08-30T14:15:18.374Z</time>
</trkpt>
<trkpt lat="31.7748100" lon="34.9782400">
<ele>376.999969</ele>
<time>2024-08-30T14:15:18.374Z</time>
</trkpt>
<trkpt lat="31.7749600" lon="34.9782500">
<ele>380.550018</ele>
<time>2024-08-30T14:15:18.374Z</time>
</trkpt>
<trkpt lat="31.7755100" lon="34.9783300">
<ele>383.679993</ele>
<time>2024-08-30T14:15:18.374Z</time>
</trkpt>
<trkpt lat="31.7758200" lon="34.9783600">
<ele>388.619995</ele>
<time>2024-08-30T14:15:18.374Z</time>
</trkpt>
<trkpt lat="31.7759400" lon="34.9782600">
<ele>388.500000</ele>
<time>2024-08-30T14:15:18.374Z</time>
</trkpt>
<trkpt lat="31.7763200" lon="34.9773100">
<ele>377.269989</ele>
<time>2024-08-30T14:15:18.374Z</time>
</trkpt>
<trkpt lat="31.7763700" lon="34.9772000">
<ele>377.869995</ele>
<time>2024-08-30T14:15:18.374Z</time>
</trkpt>
<trkpt lat="31.7760900" lon="34.9768500">
<ele>379.609985</ele>
<time>2024-08-30T14:15:18.374Z</time>
</trkpt>
<trkpt lat="31.7759200" lon="34.9766600">
<ele>384.700012</ele>
<time>2024-08-30T14:15:18.374Z</time>
</trkpt>
<trkpt lat="31.7757800" lon="34.9764900">
<ele>384.149994</ele>
<time>2024-08-30T14:15:18.374Z</time>
</trkpt>
<trkpt lat="31.7756400" lon="34.9762600">
<ele>379.770020</ele>
<time>2024-08-30T14:15:18.374Z</time>
</trkpt>
<trkpt lat="31.7755800" lon="34.9761000">
<ele>377.080017</ele>
<time>2024-08-30T14:15:18.374Z</time>
</trkpt>
<trkpt lat="31.7755600" lon="34.9759700">
<ele>376.990021</ele>
<time>2024-08-30T14:15:18.374Z</time>
</trkpt>
<trkpt lat="31.7755600" lon="34.9758500">
<ele>376.970001</ele>
<time>2024-08-30T14:15:18.374Z</time>
</trkpt>
<trkpt lat="31.7755600" lon="34.9756700">
<ele>375.799988</ele>
<time>2024-08-30T14:15:18.374Z</time>
</trkpt>
<trkpt lat="31.7755700" lon="34.9756300">
<ele>375.470001</ele>
<time>2024-08-30T14:15:18.374Z</time>
</trkpt>
<trkpt lat="31.7755700" lon="34.9756300">
<ele>375.470001</ele>
<time>2024-08-30T14:15:18.374Z</time>
</trkpt>
<trkpt lat="31.7755600" lon="34.9756200">
<ele>375.440002</ele>
<time>2024-08-30T14:15:18.374Z</time>
</trkpt>
<trkpt lat="31.7756000" lon="34.9754900">
<ele>373.029999</ele>
<time>2024-08-30T14:15:18.374Z</time>
</trkpt>
<trkpt lat="31.7758400" lon="34.9748700">
<ele>365.449982</ele>
<time>2024-08-30T14:15:18.374Z</time>
</trkpt>
<trkpt lat="31.7759400" lon="34.9746800">
<ele>367.690002</ele>
<time>2024-08-30T14:15:18.374Z</time>
</trkpt>
<trkpt lat="31.7760800" lon="34.9744500">
<ele>369.849976</ele>
<time>2024-08-30T14:15:18.374Z</time>
</trkpt>
<trkpt lat="31.7760900" lon="34.9743300">
<ele>370.839996</ele>
<time>2024-08-30T14:15:18.374Z</time>
</trkpt>
<trkpt lat="31.7760100" lon="34.9740800">
<ele>373.489990</ele>
<time>2024-08-30T14:15:18.374Z</time>
</trkpt>
<trkpt lat="31.7757600" lon="34.9736400">
<ele>379.130005</ele>
<time>2024-08-30T14:15:18.374Z</time>
</trkpt>
<trkpt lat="31.7757100" lon="34.9734800">
<ele>378.509979</ele>
<time>2024-08-30T14:15:18.374Z</time>
</trkpt>
<trkpt lat="31.7757000" lon="34.9733300">
<ele>378.079987</ele>
<time>2024-08-30T14:15:18.374Z</time>
</trkpt>
<trkpt lat="31.7757300" lon="34.9731400">
<ele>376.679993</ele>
<time>2024-08-30T14:15:18.374Z</time>
</trkpt>
<trkpt lat="31.7757900" lon="34.9730100">
<ele>376.470001</ele>
<time>2024-08-30T14:15:18.374Z</time>
</trkpt>
<trkpt lat="31.7759600" lon="34.9727500">
<ele>376.319977</ele>
<time>2024-08-30T14:15:18.374Z</time>
</trkpt>
<trkpt lat="31.7761000" lon="34.9725700">
<ele>375.100006</ele>
<time>2024-08-30T14:15:18.374Z</time>
</trkpt>
<trkpt lat="31.7761000" lon="34.9725700">
<ele>375.100006</ele>
<time>2024-08-30T14:15:18.374Z</time>
</trkpt>
<trkpt lat="31.7764900" lon="34.9720800">
<ele>369.100006</ele>
<time>2024-08-30T14:15:18.374Z</time>
</trkpt>
<trkpt lat="31.7765400" lon="34.9720300">
<ele>369.599976</ele>
<time>2024-08-30T14:15:18.374Z</time>
</trkpt>
<trkpt lat="31.7766100" lon="34.9720200">
<ele>370.119995</ele>
<time>2024-08-30T14:15:18.374Z</time>
</trkpt>
<trkpt lat="31.7767600" lon="34.9720400">
<ele>370.910004</ele>
<time>2024-08-30T14:15:18.374Z</time>
</trkpt>
<trkpt lat="31.7767500" lon="34.9722100">
<ele>371.929993</ele>
<time>2024-08-30T14:15:18.374Z</time>
</trkpt>
<trkpt lat="31.7767600" lon="34.9722100">
<ele>371.929993</ele>
<time>2024-08-30T14:15:18.374Z</time>
</trkpt>
<trkpt lat="31.7767600" lon="34.9722100">
<ele>371.929993</ele>
<time>2024-08-30T14:15:18.374Z</time>
</trkpt>
<trkpt lat="31.7767600" lon="34.9722800">
<ele>372.480011</ele>
<time>2024-08-30T14:15:18.374Z</time>
</trkpt>
<trkpt lat="31.7767500" lon="34.9725400">
<ele>374.110016</ele>
<time>2024-08-30T14:15:18.374Z</time>
</trkpt>
<trkpt lat="31.7767600" lon="34.9726800">
<ele>373.029999</ele>
<time>2024-08-30T14:15:18.374Z</time>
</trkpt>
<trkpt lat="31.7768200" lon="34.9729400">
<ele>371.369995</ele>
<time>2024-08-30T14:15:18.374Z</time>
</trkpt>
<trkpt lat="31.7768400" lon="34.9730100">
<ele>371.119995</ele>
<time>2024-08-30T14:15:18.374Z</time>
</trkpt>
<trkpt lat="31.7768900" lon="34.9732600">
<ele>367.459991</ele>
<time>2024-08-30T14:15:18.374Z</time>
</trkpt>
<trkpt lat="31.7769300" lon="34.9734100">
<ele>366.309998</ele>
<time>2024-08-30T14:15:18.374Z</time>
</trkpt>
<trkpt lat="31.7769800" lon="34.9735600">
<ele>366.920013</ele>
<time>2024-08-30T14:15:18.374Z</time>
</trkpt>
<trkpt lat="31.7770300" lon="34.9736200">
<ele>367.279968</ele>
<time>2024-08-30T14:15:18.374Z</time>
</trkpt>
<trkpt lat="31.7770800" lon="34.9736600">
<ele>367.309998</ele>
<time>2024-08-30T14:15:18.374Z</time>
</trkpt>
<trkpt lat="31.7771200" lon="34.9736600">
<ele>367.459991</ele>
<time>2024-08-30T14:15:18.374Z</time>
</trkpt>
<trkpt lat="31.7771500" lon="34.9736100">
<ele>367.730011</ele>
<time>2024-08-30T14:15:18.374Z</time>
</trkpt>
<trkpt lat="31.7771900" lon="34.9735400">
<ele>367.400024</ele>
<time>2024-08-30T14:15:18.374Z</time>
</trkpt>
<trkpt lat="31.7773000" lon="34.9734800">
<ele>365.510010</ele>
<time>2024-08-30T14:15:18.374Z</time>
</trkpt>
<trkpt lat="31.7774500" lon="34.9732700">
<ele>362.170013</ele>
<time>2024-08-30T14:15:18.374Z</time>
</trkpt>
<trkpt lat="31.7775700" lon="34.9732300">
<ele>359.449982</ele>
<time>2024-08-30T14:15:18.374Z</time>
</trkpt>
<trkpt lat="31.7778000" lon="34.9732000">
<ele>353.730011</ele>
<time>2024-08-30T14:15:18.374Z</time>
</trkpt>
<trkpt lat="31.7780600" lon="34.9731800">
<ele>350.799988</ele>
<time>2024-08-30T14:15:18.374Z</time>
</trkpt>
<trkpt lat="31.7784200" lon="34.9731700">
<ele>351.170013</ele>
<time>2024-08-30T14:15:18.374Z</time>
</trkpt>
<trkpt lat="31.7794200" lon="34.9732700">
<ele>337.760010</ele>
<time>2024-08-30T14:15:18.374Z</time>
</trkpt>
<trkpt lat="31.7797300" lon="34.9732700">
<ele>337.730011</ele>
<time>2024-08-30T14:15:18.374Z</time>
</trkpt>
<trkpt lat="31.7805100" lon="34.9731600">
<ele>336.159973</ele>
<time>2024-08-30T14:15:18.374Z</time>
</trkpt>
<trkpt lat="31.7805900" lon="34.9731700">
<ele>335.500000</ele>
<time>2024-08-30T14:15:18.374Z</time>
</trkpt>
<trkpt lat="31.7809300" lon="34.9732400">
<ele>329.119995</ele>
<time>2024-08-30T14:15:18.374Z</time>
</trkpt>
<trkpt lat="31.7811100" lon="34.9732500">
<ele>328.400024</ele>
<time>2024-08-30T14:15:18.374Z</time>
</trkpt>
<trkpt lat="31.7813000" lon="34.9732500">
<ele>328.130005</ele>
<time>2024-08-30T14:15:18.374Z</time>
</trkpt>
<trkpt lat="31.7814000" lon="34.9732400">
<ele>328.390015</ele>
<time>2024-08-30T14:15:18.374Z</time>
</trkpt>
<trkpt lat="31.7815500" lon="34.9731700">
<ele>331.119995</ele>
<time>2024-08-30T14:15:18.374Z</time>
</trkpt>
<trkpt lat="31.7819600" lon="34.9728500">
<ele>334.380005</ele>
<time>2024-08-30T14:15:18.374Z</time>
</trkpt>
<trkpt lat="31.7821600" lon="34.9728200">
<ele>333.259979</ele>
<time>2024-08-30T14:15:18.374Z</time>
</trkpt>
<trkpt lat="31.7822400" lon="34.9728200">
<ele>333.179993</ele>
<time>2024-08-30T14:15:18.374Z</time>
</trkpt>
<trkpt lat="31.7823700" lon="34.9728300">
<ele>335.569977</ele>
<time>2024-08-30T14:15:18.374Z</time>
</trkpt>
<trkpt lat="31.7824700" lon="34.9728800">
<ele>337.420013</ele>
<time>2024-08-30T14:15:18.374Z</time>
</trkpt>
<trkpt lat="31.7829000" lon="34.9733600">
<ele>341.450012</ele>
<time>2024-08-30T14:15:18.374Z</time>
</trkpt>
<trkpt lat="31.7832400" lon="34.9736400">
<ele>337.130005</ele>
<time>2024-08-30T14:15:18.374Z</time>
</trkpt>
<trkpt lat="31.7834100" lon="34.9737100">
<ele>332.589996</ele>
<time>2024-08-30T14:15:18.374Z</time>
</trkpt>
<trkpt lat="31.7836900" lon="34.9737400">
<ele>324.890015</ele>
<time>2024-08-30T14:15:18.374Z</time>
</trkpt>
<trkpt lat="31.7838000" lon="34.9737400">
<ele>323.589996</ele>
<time>2024-08-30T14:15:18.374Z</time>
</trkpt>
<trkpt lat="31.7840100" lon="34.9737200">
<ele>321.389984</ele>
<time>2024-08-30T14:15:18.374Z</time>
</trkpt>
<trkpt lat="31.7841600" lon="34.9736300">
<ele>320.850006</ele>
<time>2024-08-30T14:15:18.374Z</time>
</trkpt>
<trkpt lat="31.7842200" lon="34.9735600">
<ele>319.970001</ele>
<time>2024-08-30T14:15:18.374Z</time>
</trkpt>
<trkpt lat="31.7842500" lon="34.9734900">
<ele>320.000000</ele>
<time>2024-08-30T14:15:18.374Z</time>
</trkpt>
<trkpt lat="31.7842700" lon="34.9733600">
<ele>321.179993</ele>
<time>2024-08-30T14:15:18.374Z</time>
</trkpt>
<trkpt lat="31.7842800" lon="34.9728500">
<ele>329.799988</ele>
<time>2024-08-30T14:15:18.374Z</time>
</trkpt>
<trkpt lat="31.7843000" lon="34.9728000">
<ele>330.609985</ele>
<time>2024-08-30T14:15:18.374Z</time>
</trkpt>
<trkpt lat="31.7844000" lon="34.9727700">
<ele>331.250000</ele>
<time>2024-08-30T14:15:18.374Z</time>
</trkpt>
<trkpt lat="31.7847000" lon="34.9728000">
<ele>319.470001</ele>
<time>2024-08-30T14:15:18.374Z</time>
</trkpt>
<trkpt lat="31.7848600" lon="34.9728100">
<ele>314.830017</ele>
<time>2024-08-30T14:15:18.374Z</time>
</trkpt>
<trkpt lat="31.7851100" lon="34.9727600">
<ele>311.480011</ele>
<time>2024-08-30T14:15:18.374Z</time>
</trkpt>
<trkpt lat="31.7851800" lon="34.9727500">
<ele>311.119995</ele>
<time>2024-08-30T14:15:18.374Z</time>
</trkpt>
<trkpt lat="31.7856000" lon="34.9728000">
<ele>312.390015</ele>
<time>2024-08-30T14:15:18.374Z</time>
</trkpt>
<trkpt lat="31.7858900" lon="34.9727600">
<ele>312.170013</ele>
<time>2024-08-30T14:15:18.374Z</time>
</trkpt>
<trkpt lat="31.7860600" lon="34.9727600">
<ele>310.750000</ele>
<time>2024-08-30T14:15:18.374Z</time>
</trkpt>
<trkpt lat="31.7866000" lon="34.9727900">
<ele>301.950012</ele>
<time>2024-08-30T14:15:18.374Z</time>
</trkpt>
<trkpt lat="31.7866600" lon="34.9728000">
<ele>301.089996</ele>
<time>2024-08-30T14:15:18.374Z</time>
</trkpt>
<trkpt lat="31.7867800" lon="34.9728500">
<ele>301.389984</ele>
<time>2024-08-30T14:15:18.374Z</time>
</trkpt>
<trkpt lat="31.7869300" lon="34.9728700">
<ele>301.640015</ele>
<time>2024-08-30T14:15:18.374Z</time>
</trkpt>
<trkpt lat="31.7870400" lon="34.9728700">
<ele>302.940002</ele>
<time>2024-08-30T14:15:18.374Z</time>
</trkpt>
<trkpt lat="31.7871600" lon="34.9728400">
<ele>305.290009</ele>
<time>2024-08-30T14:15:18.374Z</time>
</trkpt>
<trkpt lat="31.7873600" lon="34.9727400">
<ele>312.170013</ele>
<time>2024-08-30T14:15:18.374Z</time>
</trkpt>
<trkpt lat="31.7874300" lon="34.9727300">
<ele>314.029999</ele>
<time>2024-08-30T14:15:18.374Z</time>
</trkpt>
<trkpt lat="31.7875300" lon="34.9727400">
<ele>315.709991</ele>
<time>2024-08-30T14:15:18.374Z</time>
</trkpt>
<trkpt lat="31.7878900" lon="34.9728800">
<ele>310.410004</ele>
<time>2024-08-30T14:15:18.374Z</time>
</trkpt>
<trkpt lat="31.7880300" lon="34.9729100">
<ele>308.720001</ele>
<time>2024-08-30T14:15:18.374Z</time>
</trkpt>
<trkpt lat="31.7881800" lon="34.9729300">
<ele>307.410004</ele>
<time>2024-08-30T14:15:18.374Z</time>
</trkpt>
<trkpt lat="31.7882700" lon="34.9729400">
<ele>306.589996</ele>
<time>2024-08-30T14:15:18.374Z</time>
</trkpt>
<trkpt lat="31.7884300" lon="34.9729700">
<ele>305.199982</ele>
<time>2024-08-30T14:15:18.374Z</time>
</trkpt>
<trkpt lat="31.7886300" lon="34.9730700">
<ele>303.800018</ele>
<time>2024-08-30T14:15:18.374Z</time>
</trkpt>
<trkpt lat="31.7886600" lon="34.9730900">
<ele>303.519989</ele>
<time>2024-08-30T14:15:18.374Z</time>
</trkpt>
<trkpt lat="31.7887500" lon="34.9731000">
<ele>302.660004</ele>
<time>2024-08-30T14:15:18.374Z</time>
</trkpt>
<trkpt lat="31.7888500" lon="34.9731000">
<ele>301.700012</ele>
<time>2024-08-30T14:15:18.374Z</time>
</trkpt>
<trkpt lat="31.7889300" lon="34.9730800">
<ele>301.279999</ele>
<time>2024-08-30T14:15:18.374Z</time>
</trkpt>
<trkpt lat="31.7890100" lon="34.9730500">
<ele>301.470001</ele>
<time>2024-08-30T14:15:18.374Z</time>
</trkpt>
<trkpt lat="31.7890400" lon="34.9730200">
<ele>301.809998</ele>
<time>2024-08-30T14:15:18.374Z</time>
</trkpt>
<trkpt lat="31.7891200" lon="34.9728900">
<ele>303.419983</ele>
<time>2024-08-30T14:15:18.374Z</time>
</trkpt>
<trkpt lat="31.7891800" lon="34.9727100">
<ele>305.119995</ele>
<time>2024-08-30T14:15:18.374Z</time>
</trkpt>
<trkpt lat="31.7891900" lon="34.9726700">
<ele>305.199982</ele>
<time>2024-08-30T14:15:18.374Z</time>
</trkpt>
<trkpt lat="31.7891900" lon="34.9726300">
<ele>305.369995</ele>
<time>2024-08-30T14:15:18.374Z</time>
</trkpt>
<trkpt lat="31.7891900" lon="34.9722400">
<ele>306.619995</ele>
<time>2024-08-30T14:15:18.374Z</time>
</trkpt>
<trkpt lat="31.7891900" lon="34.9719000">
<ele>305.820007</ele>
<time>2024-08-30T14:15:18.374Z</time>
</trkpt>
<trkpt lat="31.7892000" lon="34.9718000">
<ele>306.040009</ele>
<time>2024-08-30T14:15:18.374Z</time>
</trkpt>
<trkpt lat="31.7892100" lon="34.9714800">
<ele>306.380005</ele>
<time>2024-08-30T14:15:18.374Z</time>
</trkpt>
<trkpt lat="31.7892900" lon="34.9708700">
<ele>299.540009</ele>
<time>2024-08-30T14:15:18.374Z</time>
</trkpt>
<trkpt lat="31.7893300" lon="34.9705900">
<ele>297.250000</ele>
<time>2024-08-30T14:15:18.374Z</time>
</trkpt>
<trkpt lat="31.7894200" lon="34.9702800">
<ele>292.209991</ele>
<time>2024-08-30T14:15:18.374Z</time>
</trkpt>
<trkpt lat="31.7894900" lon="34.9701400">
<ele>290.269989</ele>
<time>2024-08-30T14:15:18.374Z</time>
</trkpt>
<trkpt lat="31.7895500" lon="34.9700600">
<ele>288.750000</ele>
<time>2024-08-30T14:15:18.374Z</time>
</trkpt>
<trkpt lat="31.7896700" lon="34.9699600">
<ele>286.100006</ele>
<time>2024-08-30T14:15:18.374Z</time>
</trkpt>
<trkpt lat="31.7899000" lon="34.9698400">
<ele>279.579987</ele>
<time>2024-08-30T14:15:18.374Z</time>
</trkpt>
<trkpt lat="31.7900100" lon="34.9697900">
<ele>276.589996</ele>
<time>2024-08-30T14:15:18.374Z</time>
</trkpt>
<trkpt lat="31.7902300" lon="34.9697400">
<ele>272.880005</ele>
<time>2024-08-30T14:15:18.374Z</time>
</trkpt>
<trkpt lat="31.7902700" lon="34.9697100">
<ele>272.029999</ele>
<time>2024-08-30T14:15:18.374Z</time>
</trkpt>
<trkpt lat="31.7903300" lon="34.9696800">
<ele>271.480011</ele>
<time>2024-08-30T14:15:18.374Z</time>
</trkpt>
<trkpt lat="31.7904200" lon="34.9695800">
<ele>270.199982</ele>
<time>2024-08-30T14:15:18.374Z</time>
</trkpt>
<trkpt lat="31.7905000" lon="34.9694400">
<ele>268.350006</ele>
<time>2024-08-30T14:15:18.374Z</time>
</trkpt>
<trkpt lat="31.7907100" lon="34.9692500">
<ele>265.200012</ele>
<time>2024-08-30T14:15:18.374Z</time>
</trkpt>
<trkpt lat="31.7908700" lon="34.9691800">
<ele>264.190002</ele>
<time>2024-08-30T14:15:18.374Z</time>
</trkpt>
<trkpt lat="31.7909300" lon="34.9691800">
<ele>264.190002</ele>
<time>2024-08-30T14:15:18.374Z</time>
</trkpt>
<trkpt lat="31.7910300" lon="34.9691800">
<ele>264.190002</ele>
<time>2024-08-30T14:15:18.374Z</time>
</trkpt>
<trkpt lat="31.7914500" lon="34.9693400">
<ele>258.049988</ele>
<time>2024-08-30T14:15:18.374Z</time>
</trkpt>
<trkpt lat="31.7915900" lon="34.9693400">
<ele>255.589996</ele>
<time>2024-08-30T14:15:18.374Z</time>
</trkpt>
<trkpt lat="31.7916900" lon="34.9693300">
<ele>254.039993</ele>
<time>2024-08-30T14:15:18.374Z</time>
</trkpt>
<trkpt lat="31.7917400" lon="34.9693200">
<ele>253.690002</ele>
<time>2024-08-30T14:15:18.374Z</time>
</trkpt>
<trkpt lat="31.7919600" lon="34.9691500">
<ele>252.049988</ele>
<time>2024-08-30T14:15:18.374Z</time>
</trkpt>
<trkpt lat="31.7922100" lon="34.9688800">
<ele>253.760010</ele>
<time>2024-08-30T14:15:18.374Z</time>
</trkpt>
<trkpt lat="31.7922800" lon="34.9687200">
<ele>252.830002</ele>
<time>2024-08-30T14:15:18.374Z</time>
</trkpt>
<trkpt lat="31.7923000" lon="34.9685900">
<ele>252.020004</ele>
<time>2024-08-30T14:15:18.374Z</time>
</trkpt>
<trkpt lat="31.7922200" lon="34.9685500">
<ele>251.089996</ele>
<time>2024-08-30T14:15:18.374Z</time>
</trkpt>
<trkpt lat="31.7920600" lon="34.9685600">
<ele>249.039993</ele>
<time>2024-08-30T14:15:18.374Z</time>
</trkpt>
<trkpt lat="31.7918800" lon="34.9685500">
<ele>246.770004</ele>
<time>2024-08-30T14:15:18.374Z</time>
</trkpt>
<trkpt lat="31.7915700" lon="34.9685200">
<ele>244.250000</ele>
<time>2024-08-30T14:15:18.374Z</time>
</trkpt>
<trkpt lat="31.7913300" lon="34.9684900">
<ele>244.409988</ele>
<time>2024-08-30T14:15:18.374Z</time>
</trkpt>
<trkpt lat="31.7910000" lon="34.9684800">
<ele>249.550003</ele>
<time>2024-08-30T14:15:18.374Z</time>
</trkpt>
<trkpt lat="31.7908600" lon="34.9684500">
<ele>249.569992</ele>
<time>2024-08-30T14:15:18.374Z</time>
</trkpt>
<trkpt lat="31.7907300" lon="34.9683900">
<ele>250.970001</ele>
<time>2024-08-30T14:15:18.374Z</time>
</trkpt>
<trkpt lat="31.7904700" lon="34.9683200">
<ele>253.580002</ele>
<time>2024-08-30T14:15:18.374Z</time>
</trkpt>
<trkpt lat="31.7903400" lon="34.9683100">
<ele>253.099991</ele>
<time>2024-08-30T14:15:18.374Z</time>
</trkpt>
<trkpt lat="31.7902700" lon="34.9682900">
<ele>252.889999</ele>
<time>2024-08-30T14:15:18.374Z</time>
</trkpt>
<trkpt lat="31.7900300" lon="34.9682500">
<ele>253.679993</ele>
<time>2024-08-30T14:15:18.374Z</time>
</trkpt>
<trkpt lat="31.7898400" lon="34.9681300">
<ele>259.139984</ele>
<time>2024-08-30T14:15:18.374Z</time>
</trkpt>
<trkpt lat="31.7894700" lon="34.9679600">
<ele>269.890015</ele>
<time>2024-08-30T14:15:18.374Z</time>
</trkpt>
<trkpt lat="31.7892900" lon="34.9678400">
<ele>269.890015</ele>
<time>2024-08-30T14:15:18.374Z</time>
</trkpt>
<trkpt lat="31.7892400" lon="34.9677400">
<ele>266.079987</ele>
<time>2024-08-30T14:15:18.374Z</time>
</trkpt>
<trkpt lat="31.7892200" lon="34.9676200">
<ele>257.509979</ele>
<time>2024-08-30T14:15:18.374Z</time>
</trkpt>
<trkpt lat="31.7891900" lon="34.9675400">
<ele>251.860001</ele>
<time>2024-08-30T14:15:18.374Z</time>
</trkpt>
<trkpt lat="31.7890400" lon="34.9673400">
<ele>250.180008</ele>
<time>2024-08-30T14:15:18.374Z</time>
</trkpt>
<trkpt lat="31.7889700" lon="34.9672100">
<ele>248.709991</ele>
<time>2024-08-30T14:15:18.374Z</time>
</trkpt>
<trkpt lat="31.7889500" lon="34.9671600">
<ele>249.180008</ele>
<time>2024-08-30T14:15:18.374Z</time>
</trkpt>
<trkpt lat="31.7889500" lon="34.9671200">
<ele>248.920013</ele>
<time>2024-08-30T14:15:18.374Z</time>
</trkpt>
<trkpt lat="31.7889700" lon="34.9669800">
<ele>247.299988</ele>
<time>2024-08-30T14:15:18.374Z</time>
</trkpt>
<trkpt lat="31.7890600" lon="34.9667900">
<ele>245.210007</ele>
<time>2024-08-30T14:15:18.374Z</time>
</trkpt>
<trkpt lat="31.7891000" lon="34.9666400">
<ele>245.819992</ele>
<time>2024-08-30T14:15:18.374Z</time>
</trkpt>
<trkpt lat="31.7891100" lon="34.9665600">
<ele>246.760010</ele>
<time>2024-08-30T14:15:18.374Z</time>
</trkpt>
<trkpt lat="31.7891100" lon="34.9664500">
<ele>248.340012</ele>
<time>2024-08-30T14:15:18.374Z</time>
</trkpt>
<trkpt lat="31.7891000" lon="34.9663800">
<ele>249.339996</ele>
<time>2024-08-30T14:15:18.374Z</time>
</trkpt>
<trkpt lat="31.7890100" lon="34.9662300">
<ele>250.059998</ele>
<time>2024-08-30T14:15:18.374Z</time>
</trkpt>
<trkpt lat="31.7889500" lon="34.9661700">
<ele>251.369995</ele>
<time>2024-08-30T14:15:18.374Z</time>
</trkpt>
<trkpt lat="31.7886800" lon="34.9660300">
<ele>257.679993</ele>
<time>2024-08-30T14:15:18.374Z</time>
</trkpt>
<trkpt lat="31.7882900" lon="34.9657400">
<ele>258.940002</ele>
<time>2024-08-30T14:15:18.374Z</time>
</trkpt>
<trkpt lat="31.7879100" lon="34.9652400">
<ele>248.699997</ele>
<time>2024-08-30T14:15:18.374Z</time>
</trkpt>
<trkpt lat="31.7877500" lon="34.9650300">
<ele>239.800003</ele>
<time>2024-08-30T14:15:18.374Z</time>
</trkpt>
<trkpt lat="31.7876700" lon="34.9649200">
<ele>238.940002</ele>
<time>2024-08-30T14:15:18.374Z</time>
</trkpt>
<trkpt lat="31.7880700" lon="34.9647800">
<ele>237.709991</ele>
<time>2024-08-30T14:15:18.374Z</time>
</trkpt>
<trkpt lat="31.7884000" lon="34.9647700">
<ele>237.630005</ele>
<time>2024-08-30T14:15:18.374Z</time>
</trkpt>
<trkpt lat="31.7887500" lon="34.9647700">
<ele>232.740005</ele>
<time>2024-08-30T14:15:18.374Z</time>
</trkpt>
<trkpt lat="31.7889300" lon="34.9647500">
<ele>229.930008</ele>
<time>2024-08-30T14:15:18.374Z</time>
</trkpt>
<trkpt lat="31.7893600" lon="34.9647300">
<ele>220.869995</ele>
<time>2024-08-30T14:15:18.374Z</time>
</trkpt>
<trkpt lat="31.7896500" lon="34.9646400">
<ele>220.279999</ele>
<time>2024-08-30T14:15:18.374Z</time>
</trkpt>
<trkpt lat="31.7898500" lon="34.9645400">
<ele>219.080002</ele>
<time>2024-08-30T14:15:18.374Z</time>
</trkpt>
<trkpt lat="31.7899700" lon="34.9644900">
<ele>218.220001</ele>
<time>2024-08-30T14:15:18.374Z</time>
</trkpt>
<trkpt lat="31.7901700" lon="34.9643700">
<ele>214.059998</ele>
<time>2024-08-30T14:15:18.374Z</time>
</trkpt>
<trkpt lat="31.7907900" lon="34.9640900">
<ele>204.000000</ele>
<time>2024-08-30T14:15:18.374Z</time>
</trkpt>
<trkpt lat="31.7910200" lon="34.9640200">
<ele>205.320007</ele>
<time>2024-08-30T14:15:18.374Z</time>
</trkpt>
<trkpt lat="31.7912300" lon="34.9639700">
<ele>205.400009</ele>
<time>2024-08-30T14:15:18.374Z</time>
</trkpt>
<trkpt lat="31.7914600" lon="34.9639500">
<ele>205.259995</ele>
<time>2024-08-30T14:15:18.374Z</time>
</trkpt>
<trkpt lat="31.7915400" lon="34.9639100">
<ele>206.159988</ele>
<time>2024-08-30T14:15:18.374Z</time>
</trkpt>
<trkpt lat="31.7916600" lon="34.9638500">
<ele>207.120010</ele>
<time>2024-08-30T14:15:18.374Z</time>
</trkpt>
<trkpt lat="31.7918000" lon="34.9637500">
<ele>205.819992</ele>
<time>2024-08-30T14:15:18.374Z</time>
</trkpt>
<trkpt lat="31.7918900" lon="34.9636600">
<ele>205.790009</ele>
<time>2024-08-30T14:15:18.374Z</time>
</trkpt>
<trkpt lat="31.7920200" lon="34.9635300">
<ele>205.380005</ele>
<time>2024-08-30T14:15:18.374Z</time>
</trkpt>
<trkpt lat="31.7921200" lon="34.9634000">
<ele>204.259995</ele>
<time>2024-08-30T14:15:18.374Z</time>
</trkpt>
<trkpt lat="31.7922300" lon="34.9632600">
<ele>203.180008</ele>
<time>2024-08-30T14:15:18.374Z</time>
</trkpt>
<trkpt lat="31.7924800" lon="34.9630300">
<ele>201.319992</ele>
<time>2024-08-30T14:15:18.374Z</time>
</trkpt>
<trkpt lat="31.7928900" lon="34.9626800">
<ele>196.630005</ele>
<time>2024-08-30T14:15:18.374Z</time>
</trkpt>
<trkpt lat="31.7930400" lon="34.9625400">
<ele>196.690002</ele>
<time>2024-08-30T14:15:18.374Z</time>
</trkpt>
<trkpt lat="31.7931700" lon="34.9623700">
<ele>194.559998</ele>
<time>2024-08-30T14:15:18.374Z</time>
</trkpt>
<trkpt lat="31.7933600" lon="34.9621500">
<ele>193.930008</ele>
<time>2024-08-30T14:15:18.374Z</time>
</trkpt>
<trkpt lat="31.7934800" lon="34.9620300">
<ele>193.839996</ele>
<time>2024-08-30T14:15:18.374Z</time>
</trkpt>
<trkpt lat="31.7938500" lon="34.9617200">
<ele>193.899994</ele>
<time>2024-08-30T14:15:18.374Z</time>
</trkpt>
<trkpt lat="31.7939600" lon="34.9616100">
<ele>193.690002</ele>
<time>2024-08-30T14:15:18.374Z</time>
</trkpt>
<trkpt lat="31.7940600" lon="34.9614800">
<ele>194.380005</ele>
<time>2024-08-30T14:15:18.374Z</time>
</trkpt>
<trkpt lat="31.7941700" lon="34.9612100">
<ele>196.240005</ele>
<time>2024-08-30T14:15:18.374Z</time>
</trkpt>
<trkpt lat="31.7941600" lon="34.9611200">
<ele>196.940002</ele>
<time>2024-08-30T14:15:18.374Z</time>
</trkpt>
<trkpt lat="31.7941400" lon="34.9610400">
<ele>196.719986</ele>
<time>2024-08-30T14:15:18.374Z</time>
</trkpt>
<trkpt lat="31.7941500" lon="34.9609900">
<ele>196.540009</ele>
<time>2024-08-30T14:15:18.374Z</time>
</trkpt>
<trkpt lat="31.7941400" lon="34.9609400">
<ele>196.319992</ele>
<time>2024-08-30T14:15:18.374Z</time>
</trkpt>
<trkpt lat="31.7941800" lon="34.9607000">
<ele>195.020004</ele>
<time>2024-08-30T14:15:18.374Z</time>
</trkpt>
<trkpt lat="31.7941900" lon="34.9605900">
<ele>194.170013</ele>
<time>2024-08-30T14:15:18.374Z</time>
</trkpt>
<trkpt lat="31.7941800" lon="34.9603400">
<ele>193.990005</ele>
<time>2024-08-30T14:15:18.374Z</time>
</trkpt>
<trkpt lat="31.7941800" lon="34.9602100">
<ele>194.239990</ele>
<time>2024-08-30T14:15:18.374Z</time>
</trkpt>
<trkpt lat="31.7941700" lon="34.9601200">
<ele>194.570007</ele>
<time>2024-08-30T14:15:18.374Z</time>
</trkpt>
<trkpt lat="31.7941400" lon="34.9600400">
<ele>195.169998</ele>
<time>2024-08-30T14:15:18.374Z</time>
</trkpt>
<trkpt lat="31.7941400" lon="34.9598700">
<ele>195.289993</ele>
<time>2024-08-30T14:15:18.374Z</time>
</trkpt>
<trkpt lat="31.7942600" lon="34.9595900">
<ele>196.480011</ele>
<time>2024-08-30T14:15:18.374Z</time>
</trkpt>
<trkpt lat="31.7942800" lon="34.9594800">
<ele>197.100006</ele>
<time>2024-08-30T14:15:18.374Z</time>
</trkpt>
<trkpt lat="31.7942900" lon="34.9593800">
<ele>197.360016</ele>
<time>2024-08-30T14:15:18.374Z</time>
</trkpt>
<trkpt lat="31.7942900" lon="34.9590700">
<ele>196.250000</ele>
<time>2024-08-30T14:15:18.374Z</time>
</trkpt>
<trkpt lat="31.7943100" lon="34.9589400">
<ele>194.649994</ele>
<time>2024-08-30T14:15:18.374Z</time>
</trkpt>
<trkpt lat="31.7943500" lon="34.9588000">
<ele>192.720001</ele>
<time>2024-08-30T14:15:18.374Z</time>
</trkpt>
<trkpt lat="31.7944500" lon="34.9587200">
<ele>191.600006</ele>
<time>2024-08-30T14:15:18.374Z</time>
</trkpt>
<trkpt lat="31.7945800" lon="34.9586500">
<ele>191.470001</ele>
<time>2024-08-30T14:15:18.374Z</time>
</trkpt>
<trkpt lat="31.7947100" lon="34.9585300">
<ele>191.049988</ele>
<time>2024-08-30T14:15:18.374Z</time>
</trkpt>
<trkpt lat="31.7948300" lon="34.9583700">
<ele>190.660004</ele>
<time>2024-08-30T14:15:18.374Z</time>
</trkpt>
<trkpt lat="31.7950800" lon="34.9578800">
<ele>187.810013</ele>
<time>2024-08-30T14:15:18.374Z</time>
</trkpt>
<trkpt lat="31.7951500" lon="34.9577600">
<ele>187.599991</ele>
<time>2024-08-30T14:15:18.374Z</time>
</trkpt>
<trkpt lat="31.7952300" lon="34.9576400">
<ele>188.720001</ele>
<time>2024-08-30T14:15:18.374Z</time>
</trkpt>
<trkpt lat="31.7954200" lon="34.9574100">
<ele>188.029999</ele>
<time>2024-08-30T14:15:18.374Z</time>
</trkpt>
<trkpt lat="31.7956000" lon="34.9571000">
<ele>184.160004</ele>
<time>2024-08-30T14:15:18.374Z</time>
</trkpt>
<trkpt lat="31.7959800" lon="34.9566000">
<ele>183.120010</ele>
<time>2024-08-30T14:15:18.374Z</time>
</trkpt>
<trkpt lat="31.7960800" lon="34.9564100">
<ele>182.079987</ele>
<time>2024-08-30T14:15:18.374Z</time>
</trkpt>
<trkpt lat="31.7961300" lon="34.9562500">
<ele>181.370010</ele>
<time>2024-08-30T14:15:18.374Z</time>
</trkpt>
<trkpt lat="31.7961500" lon="34.9561800">
<ele>181.229996</ele>
<time>2024-08-30T14:15:18.374Z</time>
</trkpt>
<trkpt lat="31.7961900" lon="34.9560800">
<ele>180.970001</ele>
<time>2024-08-30T14:15:18.374Z</time>
</trkpt>
<trkpt lat="31.7962500" lon="34.9558900">
<ele>179.319992</ele>
<time>2024-08-30T14:15:18.374Z</time>
</trkpt>
<trkpt lat="31.7964500" lon="34.9555200">
<ele>179.279999</ele>
<time>2024-08-30T14:15:18.374Z</time>
</trkpt>
<trkpt lat="31.7964900" lon="34.9554800">
<ele>180.000015</ele>
<time>2024-08-30T14:15:18.374Z</time>
</trkpt>
<trkpt lat="31.7967300" lon="34.9551100">
<ele>182.890015</ele>
<time>2024-08-30T14:15:18.374Z</time>
</trkpt>
<trkpt lat="31.7968300" lon="34.9550000">
<ele>182.590012</ele>
<time>2024-08-30T14:15:18.374Z</time>
</trkpt>
<trkpt lat="31.7969100" lon="34.9549100">
<ele>182.229996</ele>
<time>2024-08-30T14:15:18.374Z</time>
</trkpt>
<trkpt lat="31.7969200" lon="34.9549800">
<ele>182.770004</ele>
<time>2024-08-30T14:15:18.374Z</time>
</trkpt>
<trkpt lat="31.7969900" lon="34.9550000">
<ele>183.660004</ele>
<time>2024-08-30T14:15:18.374Z</time>
</trkpt>
<trkpt lat="31.7970600" lon="34.9550300">
<ele>184.960007</ele>
<time>2024-08-30T14:15:18.374Z</time>
</trkpt>
<trkpt lat="31.7971600" lon="34.9550300">
<ele>186.279999</ele>
<time>2024-08-30T14:15:18.374Z</time>
</trkpt>
<trkpt lat="31.7973900" lon="34.9550200">
<ele>185.220001</ele>
<time>2024-08-30T14:15:18.374Z</time>
</trkpt>
<trkpt lat="31.7974800" lon="34.9549800">
<ele>184.419998</ele>
<time>2024-08-30T14:15:18.374Z</time>
</trkpt>
<trkpt lat="31.7975800" lon="34.9549500">
<ele>182.890015</ele>
<time>2024-08-30T14:15:18.374Z</time>
</trkpt>
<trkpt lat="31.7977000" lon="34.9549400">
<ele>180.429993</ele>
<time>2024-08-30T14:15:18.374Z</time>
</trkpt>
<trkpt lat="31.7979800" lon="34.9548700">
<ele>170.139999</ele>
<time>2024-08-30T14:15:18.374Z</time>
</trkpt>
<trkpt lat="31.7980800" lon="34.9548300">
<ele>166.949997</ele>
<time>2024-08-30T14:15:18.374Z</time>
</trkpt>
<trkpt lat="31.7982000" lon="34.9547700">
<ele>166.570007</ele>
<time>2024-08-30T14:15:18.374Z</time>
</trkpt>
<trkpt lat="31.7983300" lon="34.9546800">
<ele>166.770004</ele>
<time>2024-08-30T14:15:18.374Z</time>
</trkpt>
<trkpt lat="31.7984500" lon="34.9545900">
<ele>167.399994</ele>
<time>2024-08-30T14:15:18.374Z</time>
</trkpt>
<trkpt lat="31.7985400" lon="34.9545300">
<ele>166.600006</ele>
<time>2024-08-30T14:15:18.374Z</time>
</trkpt>
<trkpt lat="31.7986500" lon="34.9545000">
<ele>165.819992</ele>
<time>2024-08-30T14:15:18.374Z</time>
</trkpt>
<trkpt lat="31.7987400" lon="34.9544900">
<ele>166.720001</ele>
<time>2024-08-30T14:15:18.374Z</time>
</trkpt>
<trkpt lat="31.7988400" lon="34.9544900">
<ele>167.800003</ele>
<time>2024-08-30T14:15:18.374Z</time>
</trkpt>
<trkpt lat="31.7987700" lon="34.9549500">
<ele>168.720001</ele>
<time>2024-08-30T14:15:18.374Z</time>
</trkpt>
<trkpt lat="31.7987500" lon="34.9550300">
<ele>168.720001</ele>
<time>2024-08-30T14:15:18.374Z</time>
</trkpt>
<trkpt lat="31.7987000" lon="34.9551500">
<ele>169.429993</ele>
<time>2024-08-30T14:15:18.374Z</time>
</trkpt>
<trkpt lat="31.7986900" lon="34.9552500">
<ele>170.430008</ele>
<time>2024-08-30T14:15:18.374Z</time>
</trkpt>
<trkpt lat="31.7986800" lon="34.9553900">
<ele>172.060013</ele>
<time>2024-08-30T14:15:18.374Z</time>
</trkpt>
<trkpt lat="31.7986900" lon="34.9556600">
<ele>174.750000</ele>
<time>2024-08-30T14:15:18.374Z</time>
</trkpt>
<trkpt lat="31.7987000" lon="34.9557700">
<ele>175.540009</ele>
<time>2024-08-30T14:15:18.374Z</time>
</trkpt>
<trkpt lat="31.7987500" lon="34.9558900">
<ele>175.590012</ele>
<time>2024-08-30T14:15:18.374Z</time>
</trkpt>
<trkpt lat="31.7987700" lon="34.9560200">
<ele>174.459991</ele>
<time>2024-08-30T14:15:18.374Z</time>
</trkpt>
<trkpt lat="31.7987800" lon="34.9561500">
<ele>173.320007</ele>
<time>2024-08-30T14:15:18.374Z</time>
</trkpt>
<trkpt lat="31.7987900" lon="34.9562700">
<ele>172.440002</ele>
<time>2024-08-30T14:15:18.374Z</time>
</trkpt>
<trkpt lat="31.7987800" lon="34.9565700">
<ele>169.179993</ele>
<time>2024-08-30T14:15:18.374Z</time>
</trkpt>
<trkpt lat="31.7987800" lon="34.9566900">
<ele>167.500015</ele>
<time>2024-08-30T14:15:18.374Z</time>
</trkpt>
<trkpt lat="31.7987600" lon="34.9568400">
<ele>165.769989</ele>
<time>2024-08-30T14:15:18.374Z</time>
</trkpt>
<trkpt lat="31.7987500" lon="34.9569600">
<ele>164.389999</ele>
<time>2024-08-30T14:15:18.374Z</time>
</trkpt>
<trkpt lat="31.7987600" lon="34.9573400">
<ele>162.400009</ele>
<time>2024-08-30T14:15:18.374Z</time>
</trkpt>
<trkpt lat="31.7987700" lon="34.9574200">
<ele>162.470001</ele>
<time>2024-08-30T14:15:18.374Z</time>
</trkpt>
<trkpt lat="31.7987900" lon="34.9575000">
<ele>162.860001</ele>
<time>2024-08-30T14:15:18.374Z</time>
</trkpt>
<trkpt lat="31.7988200" lon="34.9576700">
<ele>164.580002</ele>
<time>2024-08-30T14:15:18.374Z</time>
</trkpt>
<trkpt lat="31.7987900" lon="34.9576900">
<ele>163.990005</ele>
<time>2024-08-30T14:15:18.374Z</time>
</trkpt>
<trkpt lat="31.7985100" lon="34.9578300">
<ele>159.770004</ele>
<time>2024-08-30T14:15:18.374Z</time>
</trkpt>
<trkpt lat="31.7981300" lon="34.9582000">
<ele>163.119995</ele>
<time>2024-08-30T14:15:18.374Z</time>
</trkpt>
<trkpt lat="31.7980100" lon="34.9583600">
<ele>164.830002</ele>
<time>2024-08-30T14:15:18.374Z</time>
</trkpt>
<trkpt lat="31.7978000" lon="34.9588200">
<ele>171.190002</ele>
<time>2024-08-30T14:15:18.374Z</time>
</trkpt>
<trkpt lat="31.7975900" lon="34.9591900">
<ele>172.460007</ele>
<time>2024-08-30T14:15:18.374Z</time>
</trkpt>
<trkpt lat="31.7973800" lon="34.9593700">
<ele>170.649994</ele>
<time>2024-08-30T14:15:18.374Z</time>
</trkpt>
<trkpt lat="31.7972700" lon="34.9594500">
<ele>170.289993</ele>
<time>2024-08-30T14:15:18.374Z</time>
</trkpt>
<trkpt lat="31.7971800" lon="34.9595300">
<ele>172.539993</ele>
<time>2024-08-30T14:15:18.374Z</time>
</trkpt>
<trkpt lat="31.7970800" lon="34.9596500">
<ele>174.990005</ele>
<time>2024-08-30T14:15:18.374Z</time>
</trkpt>
<trkpt lat="31.7970200" lon="34.9597400">
<ele>175.339996</ele>
<time>2024-08-30T14:15:18.374Z</time>
</trkpt>
<trkpt lat="31.7969700" lon="34.9597900">
<ele>175.339996</ele>
<time>2024-08-30T14:15:18.374Z</time>
</trkpt>
<trkpt lat="31.7968800" lon="34.9598600">
<ele>176.429993</ele>
<time>2024-08-30T14:15:18.374Z</time>
</trkpt>
<trkpt lat="31.7968500" lon="34.9598900">
<ele>176.889999</ele>
<time>2024-08-30T14:15:18.374Z</time>
</trkpt>
<trkpt lat="31.7968100" lon="34.9599300">
<ele>177.440002</ele>
<time>2024-08-30T14:15:18.374Z</time>
</trkpt>
<trkpt lat="31.7965600" lon="34.9602000">
<ele>181.260010</ele>
<time>2024-08-30T14:15:18.374Z</time>
</trkpt>
<trkpt lat="31.7962200" lon="34.9605300">
<ele>179.750000</ele>
<time>2024-08-30T14:15:18.374Z</time>
</trkpt>
<trkpt lat="31.7961200" lon="34.9606600">
<ele>178.529999</ele>
<time>2024-08-30T14:15:18.374Z</time>
</trkpt>
<trkpt lat="31.7960800" lon="34.9607700">
<ele>178.580002</ele>
<time>2024-08-30T14:15:18.374Z</time>
</trkpt>
<trkpt lat="31.7960700" lon="34.9609100">
<ele>180.620010</ele>
<time>2024-08-30T14:15:18.374Z</time>
</trkpt>
<trkpt lat="31.7960900" lon="34.9610600">
<ele>184.389984</ele>
<time>2024-08-30T14:15:18.374Z</time>
</trkpt>
<trkpt lat="31.7960800" lon="34.9611300">
<ele>185.699997</ele>
<time>2024-08-30T14:15:18.374Z</time>
</trkpt>
<trkpt lat="31.7960700" lon="34.9612200">
<ele>186.769989</ele>
<time>2024-08-30T14:15:18.374Z</time>
</trkpt>
<trkpt lat="31.7960500" lon="34.9612700">
<ele>187.060013</ele>
<time>2024-08-30T14:15:18.374Z</time>
</trkpt>
<trkpt lat="31.7958700" lon="34.9614200">
<ele>185.490005</ele>
<time>2024-08-30T14:15:18.374Z</time>
</trkpt>
<trkpt lat="31.7957300" lon="34.9615700">
<ele>187.330002</ele>
<time>2024-08-30T14:15:18.374Z</time>
</trkpt>
<trkpt lat="31.7956000" lon="34.9618700">
<ele>192.880005</ele>
<time>2024-08-30T14:15:18.374Z</time>
</trkpt>
<trkpt lat="31.7956000" lon="34.9619400">
<ele>194.690002</ele>
<time>2024-08-30T14:15:18.374Z</time>
</trkpt>
<trkpt lat="31.7956000" lon="34.9620900">
<ele>196.289993</ele>
<time>2024-08-30T14:15:18.374Z</time>
</trkpt>
<trkpt lat="31.7956600" lon="34.9624300">
<ele>199.720001</ele>
<time>2024-08-30T14:15:18.374Z</time>
</trkpt>
<trkpt lat="31.7957000" lon="34.9625500">
<ele>200.729996</ele>
<time>2024-08-30T14:15:18.374Z</time>
</trkpt>
<trkpt lat="31.7957200" lon="34.9627200">
<ele>201.419998</ele>
<time>2024-08-30T14:15:18.374Z</time>
</trkpt>
<trkpt lat="31.7957400" lon="34.9627900">
<ele>201.649994</ele>
<time>2024-08-30T14:15:18.374Z</time>
</trkpt>
<trkpt lat="31.7957500" lon="34.9628800">
<ele>201.589996</ele>
<time>2024-08-30T14:15:18.374Z</time>
</trkpt>
<trkpt lat="31.7957600" lon="34.9629800">
<ele>201.539993</ele>
<time>2024-08-30T14:15:18.374Z</time>
</trkpt>
<trkpt lat="31.7957700" lon="34.9630600">
<ele>201.539993</ele>
<time>2024-08-30T14:15:18.374Z</time>
</trkpt>
<trkpt lat="31.7957800" lon="34.9634100">
<ele>201.419998</ele>
<time>2024-08-30T14:15:18.374Z</time>
</trkpt>
<trkpt lat="31.7957800" lon="34.9635200">
<ele>201.419998</ele>
<time>2024-08-30T14:15:18.374Z</time>
</trkpt>
<trkpt lat="31.7957900" lon="34.9638700">
<ele>202.610001</ele>
<time>2024-08-30T14:15:18.374Z</time>
</trkpt>
<trkpt lat="31.7957900" lon="34.9640800">
<ele>202.900009</ele>
<time>2024-08-30T14:15:18.374Z</time>
</trkpt>
<trkpt lat="31.7957800" lon="34.9642000">
<ele>202.880005</ele>
<time>2024-08-30T14:15:18.374Z</time>
</trkpt>
<trkpt lat="31.7957600" lon="34.9642600">
<ele>202.660004</ele>
<time>2024-08-30T14:15:18.374Z</time>
</trkpt>
<trkpt lat="31.7957200" lon="34.9644100">
<ele>202.119995</ele>
<time>2024-08-30T14:15:18.374Z</time>
</trkpt>
<trkpt lat="31.7956900" lon="34.9645300">
<ele>201.860001</ele>
<time>2024-08-30T14:15:18.374Z</time>
</trkpt>
<trkpt lat="31.7956400" lon="34.9646300">
<ele>202.059998</ele>
<time>2024-08-30T14:15:18.374Z</time>
</trkpt>
<trkpt lat="31.7956200" lon="34.9646500">
<ele>202.219986</ele>
<time>2024-08-30T14:15:18.374Z</time>
</trkpt>
<trkpt lat="31.7955800" lon="34.9646900">
<ele>202.649994</ele>
<time>2024-08-30T14:15:18.374Z</time>
</trkpt>
<trkpt lat="31.7955400" lon="34.9647100">
<ele>203.119995</ele>
<time>2024-08-30T14:15:18.374Z</time>
</trkpt>
<trkpt lat="31.7952500" lon="34.9650000">
<ele>207.999985</ele>
<time>2024-08-30T14:15:18.374Z</time>
</trkpt>
<trkpt lat="31.7950900" lon="34.9652700">
<ele>208.970001</ele>
<time>2024-08-30T14:15:18.374Z</time>
</trkpt>
<trkpt lat="31.7950300" lon="34.9653400">
<ele>208.750000</ele>
<time>2024-08-30T14:15:18.374Z</time>
</trkpt>
<trkpt lat="31.7949500" lon="34.9654400">
<ele>208.449997</ele>
<time>2024-08-30T14:15:18.374Z</time>
</trkpt>
<trkpt lat="31.7949100" lon="34.9655100">
<ele>208.380005</ele>
<time>2024-08-30T14:15:18.374Z</time>
</trkpt>
<trkpt lat="31.7947500" lon="34.9658700">
<ele>210.039993</ele>
<time>2024-08-30T14:15:18.374Z</time>
</trkpt>
<trkpt lat="31.7944700" lon="34.9664700">
<ele>218.220001</ele>
<time>2024-08-30T14:15:18.374Z</time>
</trkpt>
<trkpt lat="31.7943800" lon="34.9666300">
<ele>221.029999</ele>
<time>2024-08-30T14:15:18.374Z</time>
</trkpt>
<trkpt lat="31.7943200" lon="34.9667700">
<ele>221.639999</ele>
<time>2024-08-30T14:15:18.374Z</time>
</trkpt>
<trkpt lat="31.7942900" lon="34.9669400">
<ele>222.419998</ele>
<time>2024-08-30T14:15:18.374Z</time>
</trkpt>
<trkpt lat="31.7942800" lon="34.9670700">
<ele>222.039993</ele>
<time>2024-08-30T14:15:18.374Z</time>
</trkpt>
<trkpt lat="31.7942900" lon="34.9675700">
<ele>220.390015</ele>
<time>2024-08-30T14:15:18.374Z</time>
</trkpt>
<trkpt lat="31.7942700" lon="34.9678700">
<ele>221.180008</ele>
<time>2024-08-30T14:15:18.374Z</time>
</trkpt>
<trkpt lat="31.7942700" lon="34.9683000">
<ele>220.840012</ele>
<time>2024-08-30T14:15:18.374Z</time>
</trkpt>
<trkpt lat="31.7942600" lon="34.9686800">
<ele>221.079987</ele>
<time>2024-08-30T14:15:18.374Z</time>
</trkpt>
<trkpt lat="31.7942100" lon="34.9691000">
<ele>220.049988</ele>
<time>2024-08-30T14:15:18.374Z</time>
</trkpt>
<trkpt lat="31.7942100" lon="34.9692200">
<ele>220.329987</ele>
<time>2024-08-30T14:15:18.374Z</time>
</trkpt>
<trkpt lat="31.7942300" lon="34.9693400">
<ele>221.220001</ele>
<time>2024-08-30T14:15:18.374Z</time>
</trkpt>
<trkpt lat="31.7942600" lon="34.9694500">
<ele>221.729996</ele>
<time>2024-08-30T14:15:18.374Z</time>
</trkpt>
<trkpt lat="31.7943300" lon="34.9695800">
<ele>221.940002</ele>
<time>2024-08-30T14:15:18.374Z</time>
</trkpt>
<trkpt lat="31.7944400" lon="34.9696600">
<ele>219.889999</ele>
<time>2024-08-30T14:15:18.374Z</time>
</trkpt>
<trkpt lat="31.7945300" lon="34.9697000">
<ele>216.889999</ele>
<time>2024-08-30T14:15:18.374Z</time>
</trkpt>
<trkpt lat="31.7948000" lon="34.9697300">
<ele>208.110001</ele>
<time>2024-08-30T14:15:18.374Z</time>
</trkpt>
<trkpt lat="31.7948900" lon="34.9697500">
<ele>206.090012</ele>
<time>2024-08-30T14:15:18.374Z</time>
</trkpt>
<trkpt lat="31.7950100" lon="34.9697800">
<ele>203.809998</ele>
<time>2024-08-30T14:15:18.374Z</time>
</trkpt>
<trkpt lat="31.7951000" lon="34.9699600">
<ele>205.500000</ele>
<time>2024-08-30T14:15:18.374Z</time>
</trkpt>
<trkpt lat="31.7953100" lon="34.9701300">
<ele>204.530014</ele>
<time>2024-08-30T14:15:18.374Z</time>
</trkpt>
<trkpt lat="31.7954400" lon="34.9704000">
<ele>204.539993</ele>
<time>2024-08-30T14:15:18.374Z</time>
</trkpt>
<trkpt lat="31.7955800" lon="34.9706300">
<ele>204.359985</ele>
<time>2024-08-30T14:15:18.374Z</time>
</trkpt>
<trkpt lat="31.7956100" lon="34.9706800">
<ele>204.359985</ele>
<time>2024-08-30T14:15:18.374Z</time>
</trkpt>
<trkpt lat="31.7954600" lon="34.9708300">
<ele>209.360001</ele>
<time>2024-08-30T14:15:18.374Z</time>
</trkpt>
<trkpt lat="31.7954100" lon="34.9709000">
<ele>212.119995</ele>
<time>2024-08-30T14:15:18.374Z</time>
</trkpt>
<trkpt lat="31.7951700" lon="34.9716800">
<ele>227.790009</ele>
<time>2024-08-30T14:15:18.374Z</time>
</trkpt>
<trkpt lat="31.7951300" lon="34.9719700">
<ele>225.229996</ele>
<time>2024-08-30T14:15:18.374Z</time>
</trkpt>
<trkpt lat="31.7950900" lon="34.9721100">
<ele>223.770004</ele>
<time>2024-08-30T14:15:18.374Z</time>
</trkpt>
<trkpt lat="31.7948300" lon="34.9725600">
<ele>217.370010</ele>
<time>2024-08-30T14:15:18.374Z</time>
</trkpt>
<trkpt lat="31.7945800" lon="34.9730500">
<ele>216.029999</ele>
<time>2024-08-30T14:15:18.374Z</time>
</trkpt>
<trkpt lat="31.7944300" lon="34.9731400">
<ele>219.460007</ele>
<time>2024-08-30T14:15:18.374Z</time>
</trkpt>
<trkpt lat="31.7944200" lon="34.9731100">
<ele>218.949997</ele>
<time>2024-08-30T14:15:18.374Z</time>
</trkpt>
<trkpt lat="31.7943300" lon="34.9730000">
<ele>219.879990</ele>
<time>2024-08-30T14:15:18.374Z</time>
</trkpt>
<trkpt lat="31.7942100" lon="34.9728800">
<ele>222.910004</ele>
<time>2024-08-30T14:15:18.374Z</time>
</trkpt>
<trkpt lat="31.7938900" lon="34.9727000">
<ele>233.250000</ele>
<time>2024-08-30T14:15:18.374Z</time>
</trkpt>
<trkpt lat="31.7936400" lon="34.9726100">
<ele>234.839996</ele>
<time>2024-08-30T14:15:18.374Z</time>
</trkpt>
<trkpt lat="31.7936300" lon="34.9726700">
<ele>235.880005</ele>
<time>2024-08-30T14:15:18.374Z</time>
</trkpt>
<trkpt lat="31.7936500" lon="34.9727300">
<ele>236.580002</ele>
<time>2024-08-30T14:15:18.374Z</time>
</trkpt>
<trkpt lat="31.7937900" lon="34.9730500">
<ele>235.130005</ele>
<time>2024-08-30T14:15:18.374Z</time>
</trkpt>
<trkpt lat="31.7938300" lon="34.9731200">
<ele>233.839996</ele>
<time>2024-08-30T14:15:18.374Z</time>
</trkpt>
<trkpt lat="31.7938900" lon="34.9734000">
<ele>231.509995</ele>
<time>2024-08-30T14:15:18.374Z</time>
</trkpt>
<trkpt lat="31.7938900" lon="34.9734600">
<ele>231.080002</ele>
<time>2024-08-30T14:15:18.374Z</time>
</trkpt>
<trkpt lat="31.7938600" lon="34.9736200">
<ele>229.899994</ele>
<time>2024-08-30T14:15:18.374Z</time>
</trkpt>
<trkpt lat="31.7938100" lon="34.9738100">
<ele>229.720001</ele>
<time>2024-08-30T14:15:18.374Z</time>
</trkpt>
<trkpt lat="31.7937500" lon="34.9738600">
<ele>229.500000</ele>
<time>2024-08-30T14:15:18.374Z</time>
</trkpt>
<trkpt lat="31.7935500" lon="34.9740900">
<ele>227.550003</ele>
<time>2024-08-30T14:15:18.374Z</time>
</trkpt>
<trkpt lat="31.7934800" lon="34.9741500">
<ele>227.119995</ele>
<time>2024-08-30T14:15:18.374Z</time>
</trkpt>
<trkpt lat="31.7934000" lon="34.9742000">
<ele>226.790009</ele>
<time>2024-08-30T14:15:18.374Z</time>
</trkpt>
<trkpt lat="31.7933000" lon="34.9742100">
<ele>227.669998</ele>
<time>2024-08-30T14:15:18.374Z</time>
</trkpt>
<trkpt lat="31.7932100" lon="34.9742200">
<ele>230.250000</ele>
<time>2024-08-30T14:15:18.374Z</time>
</trkpt>
<trkpt lat="31.7931000" lon="34.9743000">
<ele>233.160004</ele>
<time>2024-08-30T14:15:18.374Z</time>
</trkpt>
<trkpt lat="31.7930600" lon="34.9743300">
<ele>234.270004</ele>
<time>2024-08-30T14:15:18.374Z</time>
</trkpt>
<trkpt lat="31.7929900" lon="34.9744100">
<ele>235.830002</ele>
<time>2024-08-30T14:15:18.374Z</time>
</trkpt>
<trkpt lat="31.7928400" lon="34.9745600">
<ele>238.090012</ele>
<time>2024-08-30T14:15:18.374Z</time>
</trkpt>
<trkpt lat="31.7927200" lon="34.9747000">
<ele>238.050003</ele>
<time>2024-08-30T14:15:18.374Z</time>
</trkpt>
<trkpt lat="31.7924200" lon="34.9749700">
<ele>236.850006</ele>
<time>2024-08-30T14:15:18.374Z</time>
</trkpt>
<trkpt lat="31.7923400" lon="34.9750500">
<ele>238.860001</ele>
<time>2024-08-30T14:15:18.374Z</time>
</trkpt>
<trkpt lat="31.7922800" lon="34.9752000">
<ele>240.919998</ele>
<time>2024-08-30T14:15:18.374Z</time>
</trkpt>
<trkpt lat="31.7922000" lon="34.9753700">
<ele>243.709991</ele>
<time>2024-08-30T14:15:18.374Z</time>
</trkpt>
<trkpt lat="31.7921100" lon="34.9754900">
<ele>245.919998</ele>
<time>2024-08-30T14:15:18.374Z</time>
</trkpt>
<trkpt lat="31.7920400" lon="34.9756200">
<ele>247.309998</ele>
<time>2024-08-30T14:15:18.374Z</time>
</trkpt>
<trkpt lat="31.7919800" lon="34.9757800">
<ele>247.910004</ele>
<time>2024-08-30T14:15:18.374Z</time>
</trkpt>
<trkpt lat="31.7919200" lon="34.9759000">
<ele>247.939987</ele>
<time>2024-08-30T14:15:18.374Z</time>
</trkpt>
<trkpt lat="31.7919100" lon="34.9759300">
<ele>247.870010</ele>
<time>2024-08-30T14:15:18.374Z</time>
</trkpt>
<trkpt lat="31.7918600" lon="34.9760200">
<ele>247.389999</ele>
<time>2024-08-30T14:15:18.374Z</time>
</trkpt>
<trkpt lat="31.7918100" lon="34.9761300">
<ele>246.520004</ele>
<time>2024-08-30T14:15:18.374Z</time>
</trkpt>
<trkpt lat="31.7917600" lon="34.9762100">
<ele>245.770004</ele>
<time>2024-08-30T14:15:18.374Z</time>
</trkpt>
<trkpt lat="31.7916000" lon="34.9763900">
<ele>244.479996</ele>
<time>2024-08-30T14:15:18.374Z</time>
</trkpt>
<trkpt lat="31.7914000" lon="34.9766100">
<ele>243.659988</ele>
<time>2024-08-30T14:15:18.374Z</time>
</trkpt>
<trkpt lat="31.7912500" lon="34.9767200">
<ele>242.710007</ele>
<time>2024-08-30T14:15:18.374Z</time>
</trkpt>
<trkpt lat="31.7910200" lon="34.9767900">
<ele>242.660004</ele>
<time>2024-08-30T14:15:18.374Z</time>
</trkpt>
<trkpt lat="31.7909200" lon="34.9768200">
<ele>242.820007</ele>
<time>2024-08-30T14:15:18.374Z</time>
</trkpt>
<trkpt lat="31.7907400" lon="34.9768200">
<ele>243.880005</ele>
<time>2024-08-30T14:15:18.374Z</time>
</trkpt>
<trkpt lat="31.7906200" lon="34.9768200">
<ele>244.699997</ele>
<time>2024-08-30T14:15:18.374Z</time>
</trkpt>
<trkpt lat="31.7903000" lon="34.9768300">
<ele>245.639999</ele>
<time>2024-08-30T14:15:18.374Z</time>
</trkpt>
<trkpt lat="31.7901000" lon="34.9768100">
<ele>248.589996</ele>
<time>2024-08-30T14:15:18.374Z</time>
</trkpt>
<trkpt lat="31.7899600" lon="34.9767600">
<ele>252.070007</ele>
<time>2024-08-30T14:15:18.374Z</time>
</trkpt>
<trkpt lat="31.7895200" lon="34.9765200">
<ele>256.739990</ele>
<time>2024-08-30T14:15:18.374Z</time>
</trkpt>
<trkpt lat="31.7893400" lon="34.9764900">
<ele>255.280014</ele>
<time>2024-08-30T14:15:18.374Z</time>
</trkpt>
<trkpt lat="31.7892400" lon="34.9764900">
<ele>254.330002</ele>
<time>2024-08-30T14:15:18.374Z</time>
</trkpt>
<trkpt lat="31.7890300" lon="34.9764900">
<ele>252.029999</ele>
<time>2024-08-30T14:15:18.374Z</time>
</trkpt>
<trkpt lat="31.7888500" lon="34.9765400">
<ele>249.739990</ele>
<time>2024-08-30T14:15:18.374Z</time>
</trkpt>
<trkpt lat="31.7887500" lon="34.9765800">
<ele>247.469986</ele>
<time>2024-08-30T14:15:18.374Z</time>
</trkpt>
<trkpt lat="31.7885700" lon="34.9766500">
<ele>242.979996</ele>
<time>2024-08-30T14:15:18.374Z</time>
</trkpt>
<trkpt lat="31.7883600" lon="34.9767000">
<ele>240.899994</ele>
<time>2024-08-30T14:15:18.374Z</time>
</trkpt>
<trkpt lat="31.7882400" lon="34.9767100">
<ele>242.549988</ele>
<time>2024-08-30T14:15:18.374Z</time>
</trkpt>
<trkpt lat="31.7881600" lon="34.9767100">
<ele>244.279999</ele>
<time>2024-08-30T14:15:18.374Z</time>
</trkpt>
<trkpt lat="31.7880600" lon="34.9767200">
<ele>246.330002</ele>
<time>2024-08-30T14:15:18.374Z</time>
</trkpt>
<trkpt lat="31.7879300" lon="34.9767200">
<ele>247.050003</ele>
<time>2024-08-30T14:15:18.374Z</time>
</trkpt>
<trkpt lat="31.7878700" lon="34.9767300">
<ele>247.290009</ele>
<time>2024-08-30T14:15:18.374Z</time>
</trkpt>
<trkpt lat="31.7878300" lon="34.9767700">
<ele>247.299988</ele>
<time>2024-08-30T14:15:18.374Z</time>
</trkpt>
<trkpt lat="31.7878400" lon="34.9768900">
<ele>246.610001</ele>
<time>2024-08-30T14:15:18.374Z</time>
</trkpt>
<trkpt lat="31.7878400" lon="34.9770400">
<ele>245.949997</ele>
<time>2024-08-30T14:15:18.374Z</time>
</trkpt>
<trkpt lat="31.7878600" lon="34.9774300">
<ele>242.300003</ele>
<time>2024-08-30T14:15:18.374Z</time>
</trkpt>
<trkpt lat="31.7878600" lon="34.9775700">
<ele>240.789993</ele>
<time>2024-08-30T14:15:18.374Z</time>
</trkpt>
<trkpt lat="31.7878100" lon="34.9777700">
<ele>239.169998</ele>
<time>2024-08-30T14:15:18.374Z</time>
</trkpt>
<trkpt lat="31.7877800" lon="34.9778200">
<ele>238.860001</ele>
<time>2024-08-30T14:15:18.374Z</time>
</trkpt>
<trkpt lat="31.7877500" lon="34.9778900">
<ele>238.419998</ele>
<time>2024-08-30T14:15:18.374Z</time>
</trkpt>
<trkpt lat="31.7876000" lon="34.9780700">
<ele>236.199997</ele>
<time>2024-08-30T14:15:18.374Z</time>
</trkpt>
<trkpt lat="31.7875600" lon="34.9781400">
<ele>236.429993</ele>
<time>2024-08-30T14:15:18.374Z</time>
</trkpt>
<trkpt lat="31.7875200" lon="34.9781500">
<ele>236.189987</ele>
<time>2024-08-30T14:15:18.374Z</time>
</trkpt>
<trkpt lat="31.7872400" lon="34.9781600">
<ele>233.550003</ele>
<time>2024-08-30T14:15:18.374Z</time>
</trkpt>
<trkpt lat="31.7863300" lon="34.9782500">
<ele>226.170013</ele>
<time>2024-08-30T14:15:18.374Z</time>
</trkpt>
<trkpt lat="31.7859000" lon="34.9782500">
<ele>234.819992</ele>
<time>2024-08-30T14:15:18.374Z</time>
</trkpt>
<trkpt lat="31.7857700" lon="34.9782300">
<ele>238.220001</ele>
<time>2024-08-30T14:15:18.374Z</time>
</trkpt>
<trkpt lat="31.7856300" lon="34.9782000">
<ele>241.009995</ele>
<time>2024-08-30T14:15:18.374Z</time>
</trkpt>
<trkpt lat="31.7852000" lon="34.9777900">
<ele>254.120010</ele>
<time>2024-08-30T14:15:18.374Z</time>
</trkpt>
<trkpt lat="31.7849000" lon="34.9776100">
<ele>256.470001</ele>
<time>2024-08-30T14:15:18.374Z</time>
</trkpt>
<trkpt lat="31.7846200" lon="34.9775300">
<ele>258.779999</ele>
<time>2024-08-30T14:15:18.374Z</time>
</trkpt>
<trkpt lat="31.7846100" lon="34.9774500">
<ele>258.880005</ele>
<time>2024-08-30T14:15:18.374Z</time>
</trkpt>
<trkpt lat="31.7846200" lon="34.9773500">
<ele>258.929993</ele>
<time>2024-08-30T14:15:18.374Z</time>
</trkpt>
<trkpt lat="31.7846600" lon="34.9772900">
<ele>258.619995</ele>
<time>2024-08-30T14:15:18.374Z</time>
</trkpt>
<trkpt lat="31.7849100" lon="34.9772600">
<ele>257.229980</ele>
<time>2024-08-30T14:15:18.374Z</time>
</trkpt>
<trkpt lat="31.7852200" lon="34.9771700">
<ele>257.600006</ele>
<time>2024-08-30T14:15:18.374Z</time>
</trkpt>
<trkpt lat="31.7855100" lon="34.9769500">
<ele>257.450012</ele>
<time>2024-08-30T14:15:18.374Z</time>
</trkpt>
<trkpt lat="31.7855400" lon="34.9769500">
<ele>257.130005</ele>
<time>2024-08-30T14:15:18.374Z</time>
</trkpt>
<trkpt lat="31.7855900" lon="34.9769500">
<ele>257.079987</ele>
<time>2024-08-30T14:15:18.374Z</time>
</trkpt>
<trkpt lat="31.7859000" lon="34.9770100">
<ele>258.500000</ele>
<time>2024-08-30T14:15:18.374Z</time>
</trkpt>
<trkpt lat="31.7859800" lon="34.9770100">
<ele>260.220001</ele>
<time>2024-08-30T14:15:18.374Z</time>
</trkpt>
<trkpt lat="31.7859900" lon="34.9769300">
<ele>261.709991</ele>
<time>2024-08-30T14:15:18.374Z</time>
</trkpt>
<trkpt lat="31.7859800" lon="34.9768900">
<ele>262.410004</ele>
<time>2024-08-30T14:15:18.374Z</time>
</trkpt>
<trkpt lat="31.7859700" lon="34.9768300">
<ele>263.649994</ele>
<time>2024-08-30T14:15:18.374Z</time>
</trkpt>
<trkpt lat="31.7854800" lon="34.9765400">
<ele>268.630005</ele>
<time>2024-08-30T14:15:18.374Z</time>
</trkpt>
<trkpt lat="31.7854800" lon="34.9764900">
<ele>269.959991</ele>
<time>2024-08-30T14:15:18.374Z</time>
</trkpt>
<trkpt lat="31.7856800" lon="34.9764800">
<ele>272.550018</ele>
<time>2024-08-30T14:15:18.374Z</time>
</trkpt>
<trkpt lat="31.7864700" lon="34.9765600">
<ele>265.490021</ele>
<time>2024-08-30T14:15:18.374Z</time>
</trkpt>
<trkpt lat="31.7865600" lon="34.9765400">
<ele>263.369995</ele>
<time>2024-08-30T14:15:18.374Z</time>
</trkpt>
<trkpt lat="31.7866500" lon="34.9764200">
<ele>262.239990</ele>
<time>2024-08-30T14:15:18.374Z</time>
</trkpt>
<trkpt lat="31.7866700" lon="34.9761100">
<ele>265.000000</ele>
<time>2024-08-30T14:15:18.374Z</time>
</trkpt>
<trkpt lat="31.7866600" lon="34.9757600">
<ele>267.200012</ele>
<time>2024-08-30T14:15:18.374Z</time>
</trkpt>
<trkpt lat="31.7863300" lon="34.9752400">
<ele>280.170013</ele>
<time>2024-08-30T14:15:18.374Z</time>
</trkpt>
<trkpt lat="31.7863100" lon="34.9752100">
<ele>280.880005</ele>
<time>2024-08-30T14:15:18.374Z</time>
</trkpt>
<trkpt lat="31.7860800" lon="34.9748000">
<ele>286.670013</ele>
<time>2024-08-30T14:15:18.374Z</time>
</trkpt>
<trkpt lat="31.7858800" lon="34.9746100">
<ele>292.880005</ele>
<time>2024-08-30T14:15:18.374Z</time>
</trkpt>
<trkpt lat="31.7858400" lon="34.9744200">
<ele>296.119995</ele>
<time>2024-08-30T14:15:18.374Z</time>
</trkpt>
<trkpt lat="31.7856700" lon="34.9744100">
<ele>298.450012</ele>
<time>2024-08-30T14:15:18.374Z</time>
</trkpt>
<trkpt lat="31.7855300" lon="34.9746600">
<ele>295.019989</ele>
<time>2024-08-30T14:15:18.374Z</time>
</trkpt>
<trkpt lat="31.7853200" lon="34.9748100">
<ele>298.119995</ele>
<time>2024-08-30T14:15:18.374Z</time>
</trkpt>
<trkpt lat="31.7852700" lon="34.9749200">
<ele>299.730011</ele>
<time>2024-08-30T14:15:18.374Z</time>
</trkpt>
<trkpt lat="31.7852000" lon="34.9751000">
<ele>298.959991</ele>
<time>2024-08-30T14:15:18.374Z</time>
</trkpt>
<trkpt lat="31.7851300" lon="34.9751700">
<ele>298.850006</ele>
<time>2024-08-30T14:15:18.374Z</time>
</trkpt>
<trkpt lat="31.7849300" lon="34.9752300">
<ele>299.079987</ele>
<time>2024-08-30T14:15:18.374Z</time>
</trkpt>
<trkpt lat="31.7847700" lon="34.9752900">
<ele>296.649994</ele>
<time>2024-08-30T14:15:18.374Z</time>
</trkpt>
<trkpt lat="31.7846500" lon="34.9754100">
<ele>295.739990</ele>
<time>2024-08-30T14:15:18.374Z</time>
</trkpt>
<trkpt lat="31.7845000" lon="34.9755000">
<ele>295.200012</ele>
<time>2024-08-30T14:15:18.374Z</time>
</trkpt>
<trkpt lat="31.7841100" lon="34.9754600">
<ele>293.899994</ele>
<time>2024-08-30T14:15:18.374Z</time>
</trkpt>
<trkpt lat="31.7834900" lon="34.9753700">
<ele>299.029999</ele>
<time>2024-08-30T14:15:18.374Z</time>
</trkpt>
<trkpt lat="31.7824900" lon="34.9751400">
<ele>298.269989</ele>
<time>2024-08-30T14:15:18.374Z</time>
</trkpt>
<trkpt lat="31.7824200" lon="34.9751100">
<ele>297.080017</ele>
<time>2024-08-30T14:15:18.374Z</time>
</trkpt>
<trkpt lat="31.7822200" lon="34.9750500">
<ele>293.459991</ele>
<time>2024-08-30T14:15:18.374Z</time>
</trkpt>
<trkpt lat="31.7821000" lon="34.9750200">
<ele>293.779999</ele>
<time>2024-08-30T14:15:18.374Z</time>
</trkpt>
<trkpt lat="31.7819300" lon="34.9749800">
<ele>294.619995</ele>
<time>2024-08-30T14:15:18.374Z</time>
</trkpt>
<trkpt lat="31.7818700" lon="34.9749800">
<ele>295.679993</ele>
<time>2024-08-30T14:15:18.374Z</time>
</trkpt>
<trkpt lat="31.7816800" lon="34.9749600">
<ele>299.339996</ele>
<time>2024-08-30T14:15:18.374Z</time>
</trkpt>
<trkpt lat="31.7814800" lon="34.9748900">
<ele>302.049988</ele>
<time>2024-08-30T14:15:18.374Z</time>
</trkpt>
<trkpt lat="31.7811500" lon="34.9748700">
<ele>306.419983</ele>
<time>2024-08-30T14:15:18.374Z</time>
</trkpt>
<trkpt lat="31.7810700" lon="34.9748900">
<ele>307.290009</ele>
<time>2024-08-30T14:15:18.374Z</time>
</trkpt>
<trkpt lat="31.7810500" lon="34.9749500">
<ele>307.059998</ele>
<time>2024-08-30T14:15:18.374Z</time>
</trkpt>
<trkpt lat="31.7810600" lon="34.9750600">
<ele>306.079987</ele>
<time>2024-08-30T14:15:18.374Z</time>
</trkpt>
<trkpt lat="31.7810800" lon="34.9751600">
<ele>305.119995</ele>
<time>2024-08-30T14:15:18.374Z</time>
</trkpt>
<trkpt lat="31.7812000" lon="34.9752400">
<ele>303.179993</ele>
<time>2024-08-30T14:15:18.374Z</time>
</trkpt>
<trkpt lat="31.7812600" lon="34.9753300">
<ele>302.100006</ele>
<time>2024-08-30T14:15:18.374Z</time>
</trkpt>
<trkpt lat="31.7812900" lon="34.9754500">
<ele>301.049988</ele>
<time>2024-08-30T14:15:18.374Z</time>
</trkpt>
<trkpt lat="31.7813000" lon="34.9755900">
<ele>300.279999</ele>
<time>2024-08-30T14:15:18.374Z</time>
</trkpt>
<trkpt lat="31.7813100" lon="34.9756900">
<ele>300.140015</ele>
<time>2024-08-30T14:15:18.374Z</time>
</trkpt>
<trkpt lat="31.7813200" lon="34.9758100">
<ele>299.989990</ele>
<time>2024-08-30T14:15:18.374Z</time>
</trkpt>
<trkpt lat="31.7813300" lon="34.9758600">
<ele>299.880005</ele>
<time>2024-08-30T14:15:18.374Z</time>
</trkpt>
<trkpt lat="31.7813500" lon="34.9759400">
<ele>299.779999</ele>
<time>2024-08-30T14:15:18.374Z</time>
</trkpt>
<trkpt lat="31.7814500" lon="34.9760200">
<ele>299.010010</ele>
<time>2024-08-30T14:15:18.374Z</time>
</trkpt>
<trkpt lat="31.7815300" lon="34.9760900">
<ele>298.399994</ele>
<time>2024-08-30T14:15:18.374Z</time>
</trkpt>
<trkpt lat="31.7815700" lon="34.9761600">
<ele>297.929993</ele>
<time>2024-08-30T14:15:18.374Z</time>
</trkpt>
<trkpt lat="31.7816200" lon="34.9764400">
<ele>296.790009</ele>
<time>2024-08-30T14:15:18.374Z</time>
</trkpt>
<trkpt lat="31.7816400" lon="34.9764700">
<ele>296.619995</ele>
<time>2024-08-30T14:15:18.374Z</time>
</trkpt>
<trkpt lat="31.7816500" lon="34.9765500">
<ele>296.750000</ele>
<time>2024-08-30T14:15:18.374Z</time>
</trkpt>
<trkpt lat="31.7816500" lon="34.9767800">
<ele>297.070007</ele>
<time>2024-08-30T14:15:18.374Z</time>
</trkpt>
<trkpt lat="31.7816500" lon="34.9768900">
<ele>297.019989</ele>
<time>2024-08-30T14:15:18.374Z</time>
</trkpt>
<trkpt lat="31.7816400" lon="34.9770600">
<ele>297.040009</ele>
<time>2024-08-30T14:15:18.374Z</time>
</trkpt>
<trkpt lat="31.7816400" lon="34.9771700">
<ele>297.080017</ele>
<time>2024-08-30T14:15:18.374Z</time>
</trkpt>
<trkpt lat="31.7816300" lon="34.9772600">
<ele>297.500000</ele>
<time>2024-08-30T14:15:18.374Z</time>
</trkpt>
<trkpt lat="31.7816200" lon="34.9773400">
<ele>298.300018</ele>
<time>2024-08-30T14:15:18.374Z</time>
</trkpt>
<trkpt lat="31.7816000" lon="34.9774400">
<ele>299.220001</ele>
<time>2024-08-30T14:15:18.374Z</time>
</trkpt>
<trkpt lat="31.7815600" lon="34.9775000">
<ele>299.619995</ele>
<time>2024-08-30T14:15:18.374Z</time>
</trkpt>
<trkpt lat="31.7815100" lon="34.9775700">
<ele>298.679993</ele>
<time>2024-08-30T14:15:18.374Z</time>
</trkpt>
<trkpt lat="31.7814800" lon="34.9775900">
<ele>298.360016</ele>
<time>2024-08-30T14:15:18.374Z</time>
</trkpt>
<trkpt lat="31.7814300" lon="34.9776500">
<ele>297.529999</ele>
<time>2024-08-30T14:15:18.374Z</time>
</trkpt>
<trkpt lat="31.7813200" lon="34.9776900">
<ele>297.690002</ele>
<time>2024-08-30T14:15:18.374Z</time>
</trkpt>
<trkpt lat="31.7812800" lon="34.9777400">
<ele>297.579987</ele>
<time>2024-08-30T14:15:18.374Z</time>
</trkpt>
<trkpt lat="31.7812400" lon="34.9778100">
<ele>297.540009</ele>
<time>2024-08-30T14:15:18.374Z</time>
</trkpt>
<trkpt lat="31.7812300" lon="34.9779000">
<ele>297.399994</ele>
<time>2024-08-30T14:15:18.374Z</time>
</trkpt>
<trkpt lat="31.7812300" lon="34.9780000">
<ele>297.140015</ele>
<time>2024-08-30T14:15:18.374Z</time>
</trkpt>
<trkpt lat="31.7812300" lon="34.9780800">
<ele>296.820007</ele>
<time>2024-08-30T14:15:18.374Z</time>
</trkpt>
<trkpt lat="31.7812400" lon="34.9781500">
<ele>296.320007</ele>
<time>2024-08-30T14:15:18.374Z</time>
</trkpt>
<trkpt lat="31.7812500" lon="34.9782200">
<ele>295.820007</ele>
<time>2024-08-30T14:15:18.374Z</time>
</trkpt>
<trkpt lat="31.7812500" lon="34.9783100">
<ele>295.170013</ele>
<time>2024-08-30T14:15:18.374Z</time>
</trkpt>
<trkpt lat="31.7812200" lon="34.9783300">
<ele>295.019989</ele>
<time>2024-08-30T14:15:18.374Z</time>
</trkpt>
<trkpt lat="31.7811700" lon="34.9783500">
<ele>295.110016</ele>
<time>2024-08-30T14:15:18.374Z</time>
</trkpt>
<trkpt lat="31.7811700" lon="34.9784000">
<ele>295.429993</ele>
<time>2024-08-30T14:15:18.374Z</time>
</trkpt>
<trkpt lat="31.7811700" lon="34.9784400">
<ele>295.690002</ele>
<time>2024-08-30T14:15:18.374Z</time>
</trkpt>
<trkpt lat="31.7812100" lon="34.9785700">
<ele>296.399994</ele>
<time>2024-08-30T14:15:18.374Z</time>
</trkpt>
<trkpt lat="31.7812400" lon="34.9786800">
<ele>297.559998</ele>
<time>2024-08-30T14:15:18.374Z</time>
</trkpt>
<trkpt lat="31.7812500" lon="34.9787400">
<ele>298.360016</ele>
<time>2024-08-30T14:15:18.374Z</time>
</trkpt>
<trkpt lat="31.7812400" lon="34.9789300">
<ele>300.989990</ele>
<time>2024-08-30T14:15:18.374Z</time>
</trkpt>
<trkpt lat="31.7812500" lon="34.9793700">
<ele>304.329987</ele>
<time>2024-08-30T14:15:18.374Z</time>
</trkpt>
<trkpt lat="31.7812500" lon="34.9796200">
<ele>305.630005</ele>
<time>2024-08-30T14:15:18.374Z</time>
</trkpt>
<trkpt lat="31.7812300" lon="34.9798800">
<ele>305.230011</ele>
<time>2024-08-30T14:15:18.374Z</time>
</trkpt>
<trkpt lat="31.7812000" lon="34.9800300">
<ele>304.429993</ele>
<time>2024-08-30T14:15:18.374Z</time>
</trkpt>
<trkpt lat="31.7811400" lon="34.9801800">
<ele>302.489990</ele>
<time>2024-08-30T14:15:18.374Z</time>
</trkpt>
<trkpt lat="31.7809300" lon="34.9804400">
<ele>303.229980</ele>
<time>2024-08-30T14:15:18.374Z</time>
</trkpt>
<trkpt lat="31.7808400" lon="34.9805500">
<ele>303.910004</ele>
<time>2024-08-30T14:15:18.374Z</time>
</trkpt>
<trkpt lat="31.7807800" lon="34.9807100">
<ele>303.309998</ele>
<time>2024-08-30T14:15:18.374Z</time>
</trkpt>
<trkpt lat="31.7807600" lon="34.9807500">
<ele>303.309998</ele>
<time>2024-08-30T14:15:18.374Z</time>
</trkpt>
<trkpt lat="31.7807400" lon="34.9808300">
<ele>302.739990</ele>
<time>2024-08-30T14:15:18.374Z</time>
</trkpt>
<trkpt lat="31.7807100" lon="34.9809300">
<ele>302.350006</ele>
<time>2024-08-30T14:15:18.374Z</time>
</trkpt>
<trkpt lat="31.7803700" lon="34.9814100">
<ele>307.809998</ele>
<time>2024-08-30T14:15:18.374Z</time>
</trkpt>
<trkpt lat="31.7802600" lon="34.9818500">
<ele>308.089996</ele>
<time>2024-08-30T14:15:18.374Z</time>
</trkpt>
<trkpt lat="31.7802400" lon="34.9821500">
<ele>306.959991</ele>
<time>2024-08-30T14:15:18.374Z</time>
</trkpt>
<trkpt lat="31.7801800" lon="34.9823200">
<ele>306.699982</ele>
<time>2024-08-30T14:15:18.374Z</time>
</trkpt>
<trkpt lat="31.7800200" lon="34.9826500">
<ele>307.670013</ele>
<time>2024-08-30T14:15:18.374Z</time>
</trkpt>
<trkpt lat="31.7799600" lon="34.9830800">
<ele>310.800018</ele>
<time>2024-08-30T14:15:18.374Z</time>
</trkpt>
<trkpt lat="31.7798500" lon="34.9835500">
<ele>315.520020</ele>
<time>2024-08-30T14:15:18.374Z</time>
</trkpt>
<trkpt lat="31.7797800" lon="34.9837400">
<ele>316.619995</ele>
<time>2024-08-30T14:15:18.374Z</time>
</trkpt>
<trkpt lat="31.7796400" lon="34.9839200">
<ele>318.510010</ele>
<time>2024-08-30T14:15:18.374Z</time>
</trkpt>
<trkpt lat="31.7794900" lon="34.9841000">
<ele>319.049988</ele>
<time>2024-08-30T14:15:18.374Z</time>
</trkpt>
<trkpt lat="31.7794400" lon="34.9842100">
<ele>318.229980</ele>
<time>2024-08-30T14:15:18.374Z</time>
</trkpt>
<trkpt lat="31.7793300" lon="34.9846000">
<ele>314.250000</ele>
<time>2024-08-30T14:15:18.374Z</time>
</trkpt>
<trkpt lat="31.7792800" lon="34.9846500">
<ele>314.499969</ele>
<time>2024-08-30T14:15:18.374Z</time>
</trkpt>
<trkpt lat="31.7791900" lon="34.9847000">
<ele>315.119995</ele>
<time>2024-08-30T14:15:18.374Z</time>
</trkpt>
<trkpt lat="31.7790500" lon="34.9847100">
<ele>316.979980</ele>
<time>2024-08-30T14:15:18.374Z</time>
</trkpt>
<trkpt lat="31.7786000" lon="34.9847700">
<ele>317.629974</ele>
<time>2024-08-30T14:15:18.374Z</time>
</trkpt>
<trkpt lat="31.7783500" lon="34.9847800">
<ele>317.570007</ele>
<time>2024-08-30T14:15:18.374Z</time>
</trkpt>
<trkpt lat="31.7781400" lon="34.9848100">
<ele>319.899994</ele>
<time>2024-08-30T14:15:18.374Z</time>
</trkpt>
<trkpt lat="31.7780000" lon="34.9848100">
<ele>321.750000</ele>
<time>2024-08-30T14:15:18.374Z</time>
</trkpt>
<trkpt lat="31.7778900" lon="34.9848400">
<ele>322.970032</ele>
<time>2024-08-30T14:15:18.374Z</time>
</trkpt>
<trkpt lat="31.7778600" lon="34.9848700">
<ele>323.019989</ele>
<time>2024-08-30T14:15:18.374Z</time>
</trkpt>
<trkpt lat="31.7778200" lon="34.9849600">
<ele>322.339996</ele>
<time>2024-08-30T14:15:18.374Z</time>
</trkpt>
<trkpt lat="31.7776600" lon="34.9853400">
<ele>319.299988</ele>
<time>2024-08-30T14:15:18.374Z</time>
</trkpt>
<trkpt lat="31.7774600" lon="34.9855400">
<ele>316.550018</ele>
<time>2024-08-30T14:15:18.374Z</time>
</trkpt>
<trkpt lat="31.7773900" lon="34.9857200">
<ele>316.559998</ele>
<time>2024-08-30T14:15:18.374Z</time>
</trkpt>
<trkpt lat="31.7773900" lon="34.9857900">
<ele>316.460022</ele>
<time>2024-08-30T14:15:18.374Z</time>
</trkpt>
<trkpt lat="31.7773900" lon="34.9858600">
<ele>316.410004</ele>
<time>2024-08-30T14:15:18.374Z</time>
</trkpt>
<trkpt lat="31.7774300" lon="34.9860100">
<ele>316.100006</ele>
<time>2024-08-30T14:15:18.374Z</time>
</trkpt>
<trkpt lat="31.7774300" lon="34.9861500">
<ele>315.760010</ele>
<time>2024-08-30T14:15:18.374Z</time>
</trkpt>
<trkpt lat="31.7774100" lon="34.9862400">
<ele>315.520020</ele>
<time>2024-08-30T14:15:18.374Z</time>
</trkpt>
<trkpt lat="31.7773600" lon="34.9862500">
<ele>316.269989</ele>
<time>2024-08-30T14:15:18.374Z</time>
</trkpt>
<trkpt lat="31.7773200" lon="34.9862500">
<ele>316.920013</ele>
<time>2024-08-30T14:15:18.374Z</time>
</trkpt>
<trkpt lat="31.7772600" lon="34.9862500">
<ele>317.889984</ele>
<time>2024-08-30T14:15:18.374Z</time>
</trkpt>
<trkpt lat="31.7771900" lon="34.9862400">
<ele>318.660004</ele>
<time>2024-08-30T14:15:18.374Z</time>
</trkpt>
<trkpt lat="31.7771300" lon="34.9862500">
<ele>318.829987</ele>
<time>2024-08-30T14:15:18.374Z</time>
</trkpt>
<trkpt lat="31.7770500" lon="34.9862700">
<ele>318.959991</ele>
<time>2024-08-30T14:15:18.374Z</time>
</trkpt>
<trkpt lat="31.7770300" lon="34.9863000">
<ele>318.760010</ele>
<time>2024-08-30T14:15:18.374Z</time>
</trkpt>
<trkpt lat="31.7769900" lon="34.9863700">
<ele>318.179993</ele>
<time>2024-08-30T14:15:18.374Z</time>
</trkpt>
<trkpt lat="31.7769200" lon="34.9866400">
<ele>321.170013</ele>
<time>2024-08-30T14:15:18.374Z</time>
</trkpt>
<trkpt lat="31.7769000" lon="34.9867200">
<ele>322.209991</ele>
<time>2024-08-30T14:15:18.374Z</time>
</trkpt>
<trkpt lat="31.7768900" lon="34.9867800">
<ele>322.880005</ele>
<time>2024-08-30T14:15:18.374Z</time>
</trkpt>
<trkpt lat="31.7769200" lon="34.9869200">
<ele>323.339996</ele>
<time>2024-08-30T14:15:18.374Z</time>
</trkpt>
<trkpt lat="31.7771300" lon="34.9872600">
<ele>323.600006</ele>
<time>2024-08-30T14:15:18.374Z</time>
</trkpt>
<trkpt lat="31.7773700" lon="34.9874500">
<ele>322.100006</ele>
<time>2024-08-30T14:15:18.374Z</time>
</trkpt>
<trkpt lat="31.7775900" lon="34.9876800">
<ele>325.110016</ele>
<time>2024-08-30T14:15:18.374Z</time>
</trkpt>
<trkpt lat="31.7777100" lon="34.9877700">
<ele>328.610016</ele>
<time>2024-08-30T14:15:18.374Z</time>
</trkpt>
<trkpt lat="31.7780300" lon="34.9879800">
<ele>327.019989</ele>
<time>2024-08-30T14:15:18.374Z</time>
</trkpt>
<trkpt lat="31.7784500" lon="34.9881100">
<ele>328.220001</ele>
<time>2024-08-30T14:15:18.374Z</time>
</trkpt>
<trkpt lat="31.7785600" lon="34.9881700">
<ele>328.759979</ele>
<time>2024-08-30T14:15:18.374Z</time>
</trkpt>
<trkpt lat="31.7787300" lon="34.9883600">
<ele>328.769989</ele>
<time>2024-08-30T14:15:18.374Z</time>
</trkpt>
<trkpt lat="31.7787700" lon="34.9884500">
<ele>328.690002</ele>
<time>2024-08-30T14:15:18.374Z</time>
</trkpt>
<trkpt lat="31.7788000" lon="34.9885600">
<ele>329.630005</ele>
<time>2024-08-30T14:15:18.374Z</time>
</trkpt>
<trkpt lat="31.7788000" lon="34.9886600">
<ele>330.670013</ele>
<time>2024-08-30T14:15:18.374Z</time>
</trkpt>
<trkpt lat="31.7785500" lon="34.9892800">
<ele>327.729980</ele>
<time>2024-08-30T14:15:18.374Z</time>
</trkpt>
<trkpt lat="31.7785400" lon="34.9893900">
<ele>326.610016</ele>
<time>2024-08-30T14:15:18.374Z</time>
</trkpt>
<trkpt lat="31.7785500" lon="34.9897400">
<ele>320.669983</ele>
<time>2024-08-30T14:15:18.374Z</time>
</trkpt>
<trkpt lat="31.7785400" lon="34.9901400">
<ele>316.890015</ele>
<time>2024-08-30T14:15:18.374Z</time>
</trkpt>
<trkpt lat="31.7785500" lon="34.9903100">
<ele>315.430023</ele>
<time>2024-08-30T14:15:18.374Z</time>
</trkpt>
<trkpt lat="31.7786000" lon="34.9903900">
<ele>313.660004</ele>
<time>2024-08-30T14:15:18.374Z</time>
</trkpt>
<trkpt lat="31.7786600" lon="34.9904900">
<ele>310.899994</ele>
<time>2024-08-30T14:15:18.374Z</time>
</trkpt>
<trkpt lat="31.7787700" lon="34.9905700">
<ele>308.890015</ele>
<time>2024-08-30T14:15:18.374Z</time>
</trkpt>
<trkpt lat="31.7790700" lon="34.9907100">
<ele>306.580017</ele>
<time>2024-08-30T14:15:18.374Z</time>
</trkpt>
<trkpt lat="31.7803000" lon="34.9917000">
<ele>331.539978</ele>
<time>2024-08-30T14:15:18.374Z</time>
</trkpt>
<trkpt lat="31.7804400" lon="34.9917400">
<ele>331.109985</ele>
<time>2024-08-30T14:15:18.374Z</time>
</trkpt>
<trkpt lat="31.7810300" lon="34.9917900">
<ele>327.939972</ele>
<time>2024-08-30T14:15:18.374Z</time>
</trkpt>
<trkpt lat="31.7811400" lon="34.9918400">
<ele>327.049988</ele>
<time>2024-08-30T14:15:18.374Z</time>
</trkpt>
<trkpt lat="31.7814900" lon="34.9919600">
<ele>323.779999</ele>
<time>2024-08-30T14:15:18.374Z</time>
</trkpt>
<trkpt lat="31.7816600" lon="34.9920100">
<ele>323.500000</ele>
<time>2024-08-30T14:15:18.374Z</time>
</trkpt>
<trkpt lat="31.7817900" lon="34.9920100">
<ele>326.709991</ele>
<time>2024-08-30T14:15:18.374Z</time>
</trkpt>
<trkpt lat="31.7818500" lon="34.9920000">
<ele>328.280029</ele>
<time>2024-08-30T14:15:18.374Z</time>
</trkpt>
<trkpt lat="31.7819200" lon="34.9919200">
<ele>330.299988</ele>
<time>2024-08-30T14:15:18.374Z</time>
</trkpt>
<trkpt lat="31.7819500" lon="34.9917500">
<ele>331.029999</ele>
<time>2024-08-30T14:15:18.374Z</time>
</trkpt>
<trkpt lat="31.7819700" lon="34.9913700">
<ele>331.079987</ele>
<time>2024-08-30T14:15:18.374Z</time>
</trkpt>
<trkpt lat="31.7819800" lon="34.9911400">
<ele>328.809998</ele>
<time>2024-08-30T14:15:18.374Z</time>
</trkpt>
<trkpt lat="31.7819700" lon="34.9907000">
<ele>325.220001</ele>
<time>2024-08-30T14:15:18.374Z</time>
</trkpt>
<trkpt lat="31.7819700" lon="34.9904200">
<ele>323.700012</ele>
<time>2024-08-30T14:15:18.374Z</time>
</trkpt>
<trkpt lat="31.7819600" lon="34.9903000">
<ele>323.189972</ele>
<time>2024-08-30T14:15:18.374Z</time>
</trkpt>
<trkpt lat="31.7819500" lon="34.9902200">
<ele>322.629974</ele>
<time>2024-08-30T14:15:18.374Z</time>
</trkpt>
<trkpt lat="31.7819500" lon="34.9900500">
<ele>321.420013</ele>
<time>2024-08-30T14:15:18.374Z</time>
</trkpt>
<trkpt lat="31.7819700" lon="34.9899800">
<ele>321.130005</ele>
<time>2024-08-30T14:15:18.374Z</time>
</trkpt>
<trkpt lat="31.7820400" lon="34.9899500">
<ele>321.670013</ele>
<time>2024-08-30T14:15:18.374Z</time>
</trkpt>
<trkpt lat="31.7821200" lon="34.9899500">
<ele>322.540009</ele>
<time>2024-08-30T14:15:18.374Z</time>
</trkpt>
<trkpt lat="31.7822700" lon="34.9899800">
<ele>323.839996</ele>
<time>2024-08-30T14:15:18.374Z</time>
</trkpt>
<trkpt lat="31.7823600" lon="34.9899800">
<ele>323.820007</ele>
<time>2024-08-30T14:15:18.374Z</time>
</trkpt>
<trkpt lat="31.7825600" lon="34.9899300">
<ele>323.079987</ele>
<time>2024-08-30T14:15:18.374Z</time>
</trkpt>
<trkpt lat="31.7827900" lon="34.9899100">
<ele>322.589996</ele>
<time>2024-08-30T14:15:18.374Z</time>
</trkpt>
<trkpt lat="31.7829200" lon="34.9899000">
<ele>322.020020</ele>
<time>2024-08-30T14:15:18.374Z</time>
</trkpt>
<trkpt lat="31.7830000" lon="34.9899300">
<ele>321.500000</ele>
<time>2024-08-30T14:15:18.374Z</time>
</trkpt>
<trkpt lat="31.7830800" lon="34.9900300">
<ele>320.570007</ele>
<time>2024-08-30T14:15:18.374Z</time>
</trkpt>
<trkpt lat="31.7831400" lon="34.9902500">
<ele>319.750000</ele>
<time>2024-08-30T14:15:18.374Z</time>
</trkpt>
<trkpt lat="31.7832000" lon="34.9905600">
<ele>320.960022</ele>
<time>2024-08-30T14:15:18.374Z</time>
</trkpt>
<trkpt lat="31.7832800" lon="34.9908200">
<ele>323.029999</ele>
<time>2024-08-30T14:15:18.374Z</time>
</trkpt>
<trkpt lat="31.7833600" lon="34.9910600">
<ele>325.960022</ele>
<time>2024-08-30T14:15:18.374Z</time>
</trkpt>
<trkpt lat="31.7834700" lon="34.9913000">
<ele>326.529999</ele>
<time>2024-08-30T14:15:18.374Z</time>
</trkpt>
<trkpt lat="31.7836100" lon="34.9915000">
<ele>328.199982</ele>
<time>2024-08-30T14:15:18.374Z</time>
</trkpt>
<trkpt lat="31.7838800" lon="34.9917300">
<ele>329.950012</ele>
<time>2024-08-30T14:15:18.374Z</time>
</trkpt>
<trkpt lat="31.7840900" lon="34.9918600">
<ele>332.070007</ele>
<time>2024-08-30T14:15:18.374Z</time>
</trkpt>
<trkpt lat="31.7843100" lon="34.9918900">
<ele>331.790009</ele>
<time>2024-08-30T14:15:18.374Z</time>
</trkpt>
<trkpt lat="31.7846200" lon="34.9918900">
<ele>328.159973</ele>
<time>2024-08-30T14:15:18.374Z</time>
</trkpt>
<trkpt lat="31.7849000" lon="34.9918800">
<ele>327.320007</ele>
<time>2024-08-30T14:15:18.374Z</time>
</trkpt>
<trkpt lat="31.7850100" lon="34.9918300">
<ele>327.750000</ele>
<time>2024-08-30T14:15:18.374Z</time>
</trkpt>
<trkpt lat="31.7850300" lon="34.9917400">
<ele>327.720001</ele>
<time>2024-08-30T14:15:18.374Z</time>
</trkpt>
<trkpt lat="31.7850300" lon="34.9916100">
<ele>327.369995</ele>
<time>2024-08-30T14:15:18.374Z</time>
</trkpt>
<trkpt lat="31.7850300" lon="34.9914600">
<ele>327.190002</ele>
<time>2024-08-30T14:15:18.374Z</time>
</trkpt>
<trkpt lat="31.7849600" lon="34.9911600">
<ele>327.089996</ele>
<time>2024-08-30T14:15:18.374Z</time>
</trkpt>
<trkpt lat="31.7849300" lon="34.9908700">
<ele>328.989990</ele>
<time>2024-08-30T14:15:18.374Z</time>
</trkpt>
<trkpt lat="31.7849300" lon="34.9906600">
<ele>327.690002</ele>
<time>2024-08-30T14:15:18.374Z</time>
</trkpt>
<trkpt lat="31.7849500" lon="34.9905200">
<ele>326.410004</ele>
<time>2024-08-30T14:15:18.374Z</time>
</trkpt>
<trkpt lat="31.7850000" lon="34.9903500">
<ele>324.779999</ele>
<time>2024-08-30T14:15:18.374Z</time>
</trkpt>
<trkpt lat="31.7850700" lon="34.9902100">
<ele>323.079987</ele>
<time>2024-08-30T14:15:18.374Z</time>
</trkpt>
<trkpt lat="31.7851500" lon="34.9901400">
<ele>322.240021</ele>
<time>2024-08-30T14:15:18.374Z</time>
</trkpt>
<trkpt lat="31.7853300" lon="34.9900300">
<ele>321.200012</ele>
<time>2024-08-30T14:15:18.374Z</time>
</trkpt>
<trkpt lat="31.7854700" lon="34.9899800">
<ele>320.730011</ele>
<time>2024-08-30T14:15:18.374Z</time>
</trkpt>
<trkpt lat="31.7855600" lon="34.9899700">
<ele>320.360016</ele>
<time>2024-08-30T14:15:18.374Z</time>
</trkpt>
<trkpt lat="31.7856200" lon="34.9899800">
<ele>319.100006</ele>
<time>2024-08-30T14:15:18.374Z</time>
</trkpt>
<trkpt lat="31.7858000" lon="34.9901300">
<ele>316.540009</ele>
<time>2024-08-30T14:15:18.374Z</time>
</trkpt>
<trkpt lat="31.7858600" lon="34.9901500">
<ele>316.440002</ele>
<time>2024-08-30T14:15:18.374Z</time>
</trkpt>
<trkpt lat="31.7859200" lon="34.9901500">
<ele>317.069977</ele>
<time>2024-08-30T14:15:18.374Z</time>
</trkpt>
<trkpt lat="31.7860200" lon="34.9901400">
<ele>318.029999</ele>
<time>2024-08-30T14:15:18.374Z</time>
</trkpt>
<trkpt lat="31.7861400" lon="34.9900600">
<ele>319.030029</ele>
<time>2024-08-30T14:15:18.374Z</time>
</trkpt>
<trkpt lat="31.7862700" lon="34.9899200">
<ele>321.559967</ele>
<time>2024-08-30T14:15:18.374Z</time>
</trkpt>
<trkpt lat="31.7863400" lon="34.9896900">
<ele>323.119995</ele>
<time>2024-08-30T14:15:18.374Z</time>
</trkpt>
<trkpt lat="31.7863800" lon="34.9894600">
<ele>323.839996</ele>
<time>2024-08-30T14:15:18.374Z</time>
</trkpt>
<trkpt lat="31.7864000" lon="34.9890000">
<ele>319.859985</ele>
<time>2024-08-30T14:15:18.374Z</time>
</trkpt>
<trkpt lat="31.7864500" lon="34.9885000">
<ele>318.439972</ele>
<time>2024-08-30T14:15:18.374Z</time>
</trkpt>
<trkpt lat="31.7864600" lon="34.9882300">
<ele>318.430023</ele>
<time>2024-08-30T14:15:18.374Z</time>
</trkpt>
<trkpt lat="31.7864600" lon="34.9881100">
<ele>318.330017</ele>
<time>2024-08-30T14:15:18.374Z</time>
</trkpt>
<trkpt lat="31.7864400" lon="34.9876300">
<ele>321.049988</ele>
<time>2024-08-30T14:15:18.374Z</time>
</trkpt>
<trkpt lat="31.7864500" lon="34.9871200">
<ele>327.760010</ele>
<time>2024-08-30T14:15:18.374Z</time>
</trkpt>
<trkpt lat="31.7864600" lon="34.9866400">
<ele>329.550018</ele>
<time>2024-08-30T14:15:18.374Z</time>
</trkpt>
<trkpt lat="31.7864800" lon="34.9865900">
<ele>329.119995</ele>
<time>2024-08-30T14:15:18.374Z</time>
</trkpt>
<trkpt lat="31.7865200" lon="34.9865800">
<ele>328.899994</ele>
<time>2024-08-30T14:15:18.374Z</time>
</trkpt>
<trkpt lat="31.7865700" lon="34.9865800">
<ele>328.720001</ele>
<time>2024-08-30T14:15:18.374Z</time>
</trkpt>
<trkpt lat="31.7867100" lon="34.9865900">
<ele>328.790009</ele>
<time>2024-08-30T14:15:18.374Z</time>
</trkpt>
<trkpt lat="31.7868800" lon="34.9866600">
<ele>331.199982</ele>
<time>2024-08-30T14:15:18.374Z</time>
</trkpt>
<trkpt lat="31.7872000" lon="34.9868000">
<ele>332.519989</ele>
<time>2024-08-30T14:15:18.374Z</time>
</trkpt>
<trkpt lat="31.7872800" lon="34.9868500">
<ele>331.449982</ele>
<time>2024-08-30T14:15:18.374Z</time>
</trkpt>
<trkpt lat="31.7873400" lon="34.9869400">
<ele>330.979980</ele>
<time>2024-08-30T14:15:18.374Z</time>
</trkpt>
<trkpt lat="31.7874400" lon="34.9872600">
<ele>328.239990</ele>
<time>2024-08-30T14:15:18.374Z</time>
</trkpt>
<trkpt lat="31.7874500" lon="34.9874200">
<ele>326.839996</ele>
<time>2024-08-30T14:15:18.374Z</time>
</trkpt>
<trkpt lat="31.7874500" lon="34.9875800">
<ele>325.679993</ele>
<time>2024-08-30T14:15:18.374Z</time>
</trkpt>
<trkpt lat="31.7873500" lon="34.9880100">
<ele>324.269989</ele>
<time>2024-08-30T14:15:18.374Z</time>
</trkpt>
<trkpt lat="31.7873300" lon="34.9881900">
<ele>324.470032</ele>
<time>2024-08-30T14:15:18.374Z</time>
</trkpt>
<trkpt lat="31.7873300" lon="34.9882900">
<ele>324.609985</ele>
<time>2024-08-30T14:15:18.374Z</time>
</trkpt>
<trkpt lat="31.7873400" lon="34.9883800">
<ele>324.910004</ele>
<time>2024-08-30T14:15:18.374Z</time>
</trkpt>
<trkpt lat="31.7874000" lon="34.9886200">
<ele>326.730011</ele>
<time>2024-08-30T14:15:18.374Z</time>
</trkpt>
<trkpt lat="31.7874700" lon="34.9887800">
<ele>326.690002</ele>
<time>2024-08-30T14:15:18.374Z</time>
</trkpt>
<trkpt lat="31.7875000" lon="34.9889300">
<ele>327.149994</ele>
<time>2024-08-30T14:15:18.374Z</time>
</trkpt>
<trkpt lat="31.7875200" lon="34.9892800">
<ele>326.459991</ele>
<time>2024-08-30T14:15:18.374Z</time>
</trkpt>
<trkpt lat="31.7875700" lon="34.9896400">
<ele>324.850006</ele>
<time>2024-08-30T14:15:18.374Z</time>
</trkpt>
<trkpt lat="31.7875800" lon="34.9897700">
<ele>325.339996</ele>
<time>2024-08-30T14:15:18.374Z</time>
</trkpt>
<trkpt lat="31.7875800" lon="34.9898800">
<ele>326.140015</ele>
<time>2024-08-30T14:15:18.374Z</time>
</trkpt>
<trkpt lat="31.7875600" lon="34.9900100">
<ele>326.999969</ele>
<time>2024-08-30T14:15:18.374Z</time>
</trkpt>
<trkpt lat="31.7875600" lon="34.9900100">
<ele>326.999969</ele>
<time>2024-08-30T14:15:18.374Z</time>
</trkpt>
<trkpt lat="31.7875600" lon="34.9900100">
<ele>326.999969</ele>
<time>2024-08-30T14:15:18.374Z</time>
</trkpt>
<trkpt lat="31.7873700" lon="34.9902500">
<ele>326.919983</ele>
<time>2024-08-30T14:15:18.374Z</time>
</trkpt>
<trkpt lat="31.7873400" lon="34.9903200">
<ele>326.720001</ele>
<time>2024-08-30T14:15:18.374Z</time>
</trkpt>
<trkpt lat="31.7873400" lon="34.9903200">
<ele>326.720001</ele>
<time>2024-08-30T14:15:18.374Z</time>
</trkpt>
</trkseg>
</trk>
</gpx>
